Wetterdaten: Mittwoch, 23.02.2022
Datum Zeit Temp. Aussen Temp. o. S. Temp +5cm Feuchte Auss Luftdruck Regen Sonnenschein Regendauer Solar Windben Empfang
23.02.2022 00:00 6,2 C 5,0 C 2,8 C 93 % 1021,2 hPa 0,0 l/m 0 min 0 min 0 W/m 0,0 km/h (0 Bft) 97,30 %
23.02.2022 00:02 6,2 C 5,0 C 2,8 C 93 % 1021,2 hPa 0,0 l/m 0 min 0 min 0 W/m 3,2 km/h (1 Bft) 97,30 %
23.02.2022 00:04 6,2 C 5,6 C 2,8 C 93 % 1021,2 hPa 0,0 l/m 0 min 0 min 0 W/m 6,4 km/h (2 Bft) 97,87 %
23.02.2022 00:08 6,2 C 5,6 C 2,8 C 93 % 1021,4 hPa 0,0 l/m 0 min 0 min 0 W/m 12,9 km/h (3 Bft) 97,85 %
23.02.2022 00:10 6,2 C 5,6 C 2,8 C 93 % 1021,5 hPa 0,0 l/m 0 min 0 min 0 W/m 9,7 km/h (2 Bft) 98,18 %
23.02.2022 00:12 6,2 C 5,6 C 2,8 C 93 % 1021,4 hPa 0,0 l/m 0 min 0 min 0 W/m 12,9 km/h (3 Bft) 94,74 %
23.02.2022 00:14 6,2 C 5,6 C 2,8 C 93 % 1021,4 hPa 0,0 l/m 0 min 0 min 0 W/m 6,4 km/h (2 Bft) 100,00 %
23.02.2022 00:16 6,3 C 5,6 C 2,8 C 93 % 1021,5 hPa 0,0 l/m 0 min 0 min 0 W/m 9,7 km/h (2 Bft) 97,37 %
23.02.2022 00:18 6,3 C 5,6 C 2,8 C 93 % 1021,5 hPa 0,0 l/m 0 min 0 min 0 W/m 9,7 km/h (2 Bft) 97,96 %
23.02.2022 00:20 6,3 C 5,6 C 2,8 C 93 % 1021,6 hPa 0,0 l/m 0 min 0 min 0 W/m 16,1 km/h (3 Bft) 97,87 %
23.02.2022 00:22 6,2 C 5,6 C 2,8 C 93 % 1021,6 hPa 0,0 l/m 0 min 0 min 0 W/m 9,7 km/h (2 Bft) 94,74 %
23.02.2022 00:24 6,3 C 5,6 C 2,8 C 93 % 1021,7 hPa 0,0 l/m 0 min 0 min 0 W/m 16,1 km/h (3 Bft) 98,00 %
23.02.2022 00:26 6,3 C 5,6 C 2,8 C 93 % 1021,7 hPa 0,0 l/m 0 min 0 min 0 W/m 9,7 km/h (2 Bft) 97,87 %
23.02.2022 00:28 6,3 C 5,6 C 2,8 C 93 % 1021,7 hPa 0,0 l/m 0 min 0 min 0 W/m 9,7 km/h (2 Bft) 97,73 %
23.02.2022 00:30 6,3 C 5,6 C 2,8 C 93 % 1021,7 hPa 0,0 l/m 0 min 0 min 0 W/m 9,7 km/h (2 Bft) 97,87 %
23.02.2022 00:32 6,3 C 5,6 C 2,8 C 93 % 1021,8 hPa 0,0 l/m 0 min 0 min 0 W/m 6,4 km/h (2 Bft) 93,88 %
23.02.2022 00:34 6,3 C 5,6 C 2,8 C 93 % 1021,8 hPa 0,0 l/m 0 min 0 min 0 W/m 12,9 km/h (3 Bft) 97,87 %
23.02.2022 00:36 6,3 C 5,6 C 2,8 C 93 % 1021,8 hPa 0,0 l/m 0 min 0 min 0 W/m 9,7 km/h (2 Bft) 97,73 %
23.02.2022 00:38 6,3 C 5,6 C 2,8 C 93 % 1021,9 hPa 0,0 l/m 0 min 0 min 0 W/m 12,9 km/h (3 Bft) 97,87 %
23.02.2022 00:40 6,3 C 5,6 C 2,8 C 93 % 1021,9 hPa 0,0 l/m 0 min 0 min 0 W/m 12,9 km/h (3 Bft) 96,00 %
23.02.2022 00:42 6,3 C 5,6 C 2,8 C 92 % 1021,9 hPa 0,0 l/m 0 min 0 min 0 W/m 9,7 km/h (2 Bft) 100,00 %
23.02.2022 00:44 6,2 C 5,6 C 2,8 C 92 % 1021,9 hPa 0,0 l/m 0 min 0 min 0 W/m 12,9 km/h (3 Bft) 97,73 %
23.02.2022 00:46 6,2 C 5,6 C 2,8 C 92 % 1022,0 hPa 0,0 l/m 0 min 0 min 0 W/m 12,9 km/h (3 Bft) 100,00 %
23.02.2022 00:48 6,2 C 5,6 C 2,8 C 92 % 1022,0 hPa 0,0 l/m 0 min 0 min 0 W/m 19,3 km/h (3 Bft) 100,00 %
23.02.2022 00:50 6,2 C 5,6 C 2,8 C 92 % 1022,1 hPa 0,0 l/m 0 min 0 min 0 W/m 12,9 km/h (3 Bft) 100,00 %
23.02.2022 00:52 6,2 C 5,6 C 2,8 C 92 % 1022,1 hPa 0,0 l/m 0 min 0 min 0 W/m 9,7 km/h (2 Bft) 97,87 %
23.02.2022 00:54 6,2 C 5,6 C 2,8 C 92 % 1022,1 hPa 0,0 l/m 0 min 0 min 0 W/m 16,1 km/h (3 Bft) 100,00 %
23.02.2022 00:56 6,2 C 5,6 C 2,8 C 92 % 1022,1 hPa 0,0 l/m 0 min 0 min 0 W/m 9,7 km/h (2 Bft) 100,00 %
23.02.2022 00:58 6,2 C 5,6 C 2,8 C 92 % 1022,1 hPa 0,0 l/m 0 min 0 min 0 W/m 12,9 km/h (3 Bft) 100,00 %
23.02.2022 01:00 6,1 C 5,6 C 2,8 C 92 % 1022,2 hPa 0,0 l/m 0 min 0 min 0 W/m 9,7 km/h (2 Bft) 100,00 %
23.02.2022 01:02 6,1 C 5,6 C 2,8 C 92 % 1022,2 hPa 0,0 l/m 0 min 0 min 0 W/m 9,7 km/h (2 Bft) 100,00 %
23.02.2022 01:04 6,1 C 5,6 C 2,8 C 92 % 1022,2 hPa 0,0 l/m 0 min 0 min 0 W/m 12,9 km/h (3 Bft) 100,00 %
23.02.2022 01:06 6,1 C 5,6 C 2,8 C 92 % 1022,2 hPa 0,0 l/m 0 min 0 min 0 W/m 12,9 km/h (3 Bft) 98,11 %
23.02.2022 01:08 6,1 C 5,6 C 2,8 C 92 % 1022,3 hPa 0,0 l/m 0 min 0 min 0 W/m 12,9 km/h (3 Bft) 100,00 %
23.02.2022 01:10 6,1 C 5,0 C 2,8 C 92 % 1022,3 hPa 0,0 l/m 0 min 0 min 0 W/m 12,9 km/h (3 Bft) 97,87 %
23.02.2022 01:12 6,1 C 5,0 C 2,8 C 92 % 1022,4 hPa 0,0 l/m 0 min 0 min 0 W/m 12,9 km/h (3 Bft) 97,87 %
23.02.2022 01:14 6,1 C 5,6 C 2,8 C 93 % 1022,4 hPa 0,0 l/m 0 min 0 min 0 W/m 9,7 km/h (2 Bft) 100,00 %
23.02.2022 01:16 6,1 C 5,0 C 2,8 C 93 % 1022,4 hPa 0,0 l/m 0 min 0 min 0 W/m 12,9 km/h (3 Bft) 97,83 %
23.02.2022 01:18 6,1 C 5,6 C 2,8 C 93 % 1022,5 hPa 0,0 l/m 0 min 0 min 0 W/m 16,1 km/h (3 Bft) 100,00 %
23.02.2022 01:20 6,1 C 5,0 C 2,2 C 93 % 1022,5 hPa 0,0 l/m 0 min 0 min 0 W/m 12,9 km/h (3 Bft) 100,00 %
23.02.2022 01:22 6,0 C 5,6 C 2,8 C 92 % 1022,5 hPa 0,0 l/m 0 min 0 min 0 W/m 9,7 km/h (2 Bft) 97,87 %
23.02.2022 01:24 6,0 C 5,0 C 2,2 C 92 % 1022,6 hPa 0,0 l/m 0 min 0 min 0 W/m 12,9 km/h (3 Bft) 97,87 %
23.02.2022 01:26 6,0 C 5,0 C 2,2 C 92 % 1022,6 hPa 0,0 l/m 0 min 0 min 0 W/m 12,9 km/h (3 Bft) 96,30 %
23.02.2022 01:28 5,9 C 5,0 C 2,2 C 92 % 1022,6 hPa 0,0 l/m 0 min 0 min 0 W/m 16,1 km/h (3 Bft) 97,83 %
23.02.2022 01:30 5,9 C 5,0 C 2,2 C 92 % 1022,6 hPa 0,0 l/m 0 min 0 min 0 W/m 12,9 km/h (3 Bft) 98,00 %
23.02.2022 01:32 5,9 C 5,0 C 2,2 C 92 % 1022,6 hPa 0,0 l/m 0 min 0 min 0 W/m 6,4 km/h (2 Bft) 95,74 %
23.02.2022 01:34 5,9 C 5,0 C 2,2 C 92 % 1022,6 hPa 0,0 l/m 0 min 0 min 0 W/m 6,4 km/h (2 Bft) 97,30 %
23.02.2022 01:36 5,9 C 5,0 C 2,2 C 92 % 1022,7 hPa 0,0 l/m 0 min 0 min 0 W/m 6,4 km/h (2 Bft) 97,87 %
23.02.2022 01:38 5,8 C 5,0 C 2,2 C 92 % 1022,7 hPa 0,0 l/m 0 min 0 min 0 W/m 12,9 km/h (3 Bft) 95,74 %
23.02.2022 01:40 5,8 C 5,0 C 2,2 C 92 % 1022,8 hPa 0,0 l/m 0 min 0 min 0 W/m 6,4 km/h (2 Bft) 97,87 %
23.02.2022 01:42 5,8 C 5,0 C 2,2 C 92 % 1022,7 hPa 0,0 l/m 0 min 0 min 0 W/m 6,4 km/h (2 Bft) 94,34 %
23.02.2022 01:44 5,8 C 5,0 C 2,2 C 92 % 1022,8 hPa 0,0 l/m 0 min 0 min 0 W/m 6,4 km/h (2 Bft) 98,00 %
23.02.2022 01:46 5,8 C 5,0 C 2,2 C 92 % 1022,8 hPa 0,0 l/m 0 min 0 min 0 W/m 9,7 km/h (2 Bft) 94,59 %
23.02.2022 01:48 5,7 C 5,0 C 2,2 C 92 % 1022,8 hPa 0,0 l/m 0 min 0 min 0 W/m 12,9 km/h (3 Bft) 97,87 %
23.02.2022 01:50 5,7 C 5,0 C 2,2 C 92 % 1022,8 hPa 0,0 l/m 0 min 0 min 0 W/m 3,2 km/h (1 Bft) 95,74 %
23.02.2022 01:52 5,7 C 5,0 C 2,2 C 92 % 1022,8 hPa 0,0 l/m 0 min 0 min 0 W/m 6,4 km/h (2 Bft) 95,74 %
23.02.2022 01:54 5,7 C 4,4 C 2,2 C 92 % 1022,8 hPa 0,0 l/m 0 min 0 min 0 W/m 9,7 km/h (2 Bft) 95,65 %
23.02.2022 01:56 5,6 C 4,4 C 2,2 C 92 % 1022,9 hPa 0,0 l/m 0 min 0 min 0 W/m 6,4 km/h (2 Bft) 96,30 %
23.02.2022 01:58 5,6 C 5,0 C 2,2 C 92 % 1022,9 hPa 0,0 l/m 0 min 0 min 0 W/m 9,7 km/h (2 Bft) 95,35 %
23.02.2022 02:00 5,6 C 5,0 C 2,2 C 92 % 1022,9 hPa 0,0 l/m 0 min 0 min 0 W/m 9,7 km/h (2 Bft) 92,59 %
23.02.2022 02:02 5,6 C 4,4 C 2,2 C 92 % 1022,9 hPa 0,0 l/m 0 min 0 min 0 W/m 3,2 km/h (1 Bft) 92,86 %
23.02.2022 02:04 5,6 C 4,4 C 2,2 C 92 % 1022,9 hPa 0,0 l/m 0 min 0 min 0 W/m 12,9 km/h (3 Bft) 97,44 %
23.02.2022 02:06 5,6 C 4,4 C 2,2 C 92 % 1022,9 hPa 0,0 l/m 0 min 0 min 0 W/m 6,4 km/h (2 Bft) 92,45 %
23.02.2022 02:08 5,5 C 4,4 C 2,2 C 92 % 1022,9 hPa 0,0 l/m 0 min 0 min 0 W/m 6,4 km/h (2 Bft) 93,62 %
23.02.2022 02:10 5,5 C 4,4 C 2,2 C 92 % 1023,0 hPa 0,0 l/m 0 min 0 min 0 W/m 6,4 km/h (2 Bft) 91,49 %
23.02.2022 02:12 5,4 C 4,4 C 1,7 C 92 % 1023,1 hPa 0,0 l/m 0 min 0 min 0 W/m 6,4 km/h (2 Bft) 94,00 %
23.02.2022 02:14 5,4 C 4,4 C 1,7 C 92 % 1023,1 hPa 0,0 l/m 0 min 0 min 0 W/m 6,4 km/h (2 Bft) 93,48 %
23.02.2022 02:16 5,4 C 4,4 C 2,2 C 92 % 1023,1 hPa 0,0 l/m 0 min 0 min 0 W/m 9,7 km/h (2 Bft) 93,88 %
23.02.2022 02:18 5,4 C 4,4 C 1,7 C 92 % 1023,2 hPa 0,0 l/m 0 min 0 min 0 W/m 9,7 km/h (2 Bft) 94,29 %
23.02.2022 02:20 5,3 C 4,4 C 1,7 C 92 % 1023,2 hPa 0,0 l/m 0 min 0 min 0 W/m 6,4 km/h (2 Bft) 95,74 %
23.02.2022 02:22 5,3 C 4,4 C 1,7 C 92 % 1023,2 hPa 0,0 l/m 0 min 0 min 0 W/m 3,2 km/h (1 Bft) 94,44 %
23.02.2022 02:24 5,3 C 4,4 C 1,7 C 92 % 1023,3 hPa 0,0 l/m 0 min 0 min 0 W/m 3,2 km/h (1 Bft) 95,74 %
23.02.2022 02:26 5,3 C 4,4 C 1,7 C 92 % 1023,3 hPa 0,0 l/m 0 min 0 min 0 W/m 12,9 km/h (3 Bft) 93,48 %
23.02.2022 02:28 5,3 C 4,4 C 1,7 C 92 % 1023,2 hPa 0,0 l/m 0 min 0 min 0 W/m 6,4 km/h (2 Bft) 98,00 %
23.02.2022 02:30 5,2 C 4,4 C 1,7 C 92 % 1023,3 hPa 0,0 l/m 0 min 0 min 0 W/m 6,4 km/h (2 Bft) 100,00 %
23.02.2022 02:32 5,2 C 4,4 C 1,7 C 92 % 1023,3 hPa 0,0 l/m 0 min 0 min 0 W/m 6,4 km/h (2 Bft) 100,00 %
23.02.2022 02:34 5,2 C 4,4 C 1,7 C 92 % 1023,3 hPa 0,0 l/m 0 min 0 min 0 W/m 3,2 km/h (1 Bft) 100,00 %
23.02.2022 02:36 5,2 C 4,4 C 1,7 C 92 % 1023,3 hPa 0,0 l/m 0 min 0 min 0 W/m 6,4 km/h (2 Bft) 96,30 %
23.02.2022 02:38 5,2 C 4,4 C 1,7 C 92 % 1023,3 hPa 0,0 l/m 0 min 0 min 0 W/m 9,7 km/h (2 Bft) 100,00 %
23.02.2022 02:40 5,2 C 4,4 C 1,7 C 92 % 1023,3 hPa 0,0 l/m 0 min 0 min 0 W/m 6,4 km/h (2 Bft) 97,87 %
23.02.2022 02:42 5,2 C 4,4 C 1,7 C 92 % 1023,4 hPa 0,0 l/m 0 min 0 min 0 W/m 3,2 km/h (1 Bft) 100,00 %
23.02.2022 02:44 5,2 C 4,4 C 1,7 C 92 % 1023,4 hPa 0,0 l/m 0 min 0 min 0 W/m 3,2 km/h (1 Bft) 100,00 %
23.02.2022 02:46 5,2 C 4,4 C 1,7 C 92 % 1023,5 hPa 0,0 l/m 0 min 0 min 0 W/m 6,4 km/h (2 Bft) 100,00 %
23.02.2022 02:48 5,2 C 4,4 C 1,7 C 92 % 1023,5 hPa 0,0 l/m 0 min 0 min 0 W/m 6,4 km/h (2 Bft) 100,00 %
23.02.2022 02:50 5,1 C 4,4 C 1,7 C 92 % 1023,5 hPa 0,0 l/m 0 min 0 min 0 W/m 6,4 km/h (2 Bft) 100,00 %
23.02.2022 02:52 5,1 C 3,9 C 1,7 C 92 % 1023,6 hPa 0,0 l/m 0 min 0 min 0 W/m 3,2 km/h (1 Bft) 97,96 %
23.02.2022 02:54 5,1 C 3,9 C 1,7 C 92 % 1023,6 hPa 0,0 l/m 0 min 0 min 0 W/m 6,4 km/h (2 Bft) 100,00 %
23.02.2022 02:56 5,1 C 3,9 C 1,7 C 92 % 1023,6 hPa 0,0 l/m 0 min 0 min 0 W/m 3,2 km/h (1 Bft) 100,00 %
23.02.2022 02:58 5,0 C 3,9 C 1,7 C 92 % 1023,5 hPa 0,0 l/m 0 min 0 min 0 W/m 6,4 km/h (2 Bft) 98,00 %
23.02.2022 03:00 5,0 C 3,9 C 1,7 C 92 % 1023,5 hPa 0,0 l/m 0 min 0 min 0 W/m 3,2 km/h (1 Bft) 65,96 %
23.02.2022 03:02 4,9 C 3,9 C 1,7 C 92 % 1023,6 hPa 0,0 l/m 0 min 0 min 0 W/m 3,2 km/h (1 Bft) 80,95 %
23.02.2022 03:04 4,9 C 3,9 C 1,7 C 92 % 1023,6 hPa 0,0 l/m 0 min 0 min 0 W/m 6,4 km/h (2 Bft) 100,00 %
23.02.2022 03:06 4,9 C 3,9 C 1,7 C 92 % 1023,6 hPa 0,0 l/m 0 min 0 min 0 W/m 6,4 km/h (2 Bft) 97,62 %
23.02.2022 03:08 4,9 C 3,9 C 1,7 C 92 % 1023,6 hPa 0,0 l/m 0 min 0 min 0 W/m 9,7 km/h (2 Bft) 100,00 %
23.02.2022 03:10 4,9 C 3,9 C 1,7 C 92 % 1023,7 hPa 0,0 l/m 0 min 0 min 0 W/m 6,4 km/h (2 Bft) 100,00 %
23.02.2022 03:12 4,9 C 3,9 C 1,7 C 92 % 1023,6 hPa 0,0 l/m 0 min 0 min 0 W/m 12,9 km/h (3 Bft) 97,87 %
23.02.2022 03:14 4,9 C 3,9 C 1,7 C 92 % 1023,6 hPa 0,0 l/m 0 min 0 min 0 W/m 3,2 km/h (1 Bft) 100,00 %
23.02.2022 03:16 4,8 C 3,9 C 1,7 C 92 % 1023,7 hPa 0,0 l/m 0 min 0 min 0 W/m 3,2 km/h (1 Bft) 100,00 %
23.02.2022 03:18 4,8 C 3,9 C 1,7 C 92 % 1023,7 hPa 0,0 l/m 0 min 0 min 0 W/m 6,4 km/h (2 Bft) 100,00 %
23.02.2022 03:20 4,8 C 3,9 C 1,7 C 92 % 1023,7 hPa 0,0 l/m 0 min 0 min 0 W/m 6,4 km/h (2 Bft) 100,00 %
23.02.2022 03:22 4,8 C 3,9 C 1,7 C 92 % 1023,8 hPa 0,0 l/m 0 min 0 min 0 W/m 3,2 km/h (1 Bft) 100,00 %
23.02.2022 03:24 4,8 C 3,9 C 1,7 C 92 % 1023,7 hPa 0,0 l/m 0 min 0 min 0 W/m 6,4 km/h (2 Bft) 100,00 %
23.02.2022 03:26 4,8 C 3,9 C 1,7 C 92 % 1023,7 hPa 0,0 l/m 0 min 0 min 0 W/m 3,2 km/h (1 Bft) 97,83 %
23.02.2022 03:28 4,8 C 3,9 C 1,1 C 92 % 1023,7 hPa 0,0 l/m 0 min 0 min 0 W/m 6,4 km/h (2 Bft) 97,87 %
23.02.2022 03:30 4,7 C 3,9 C 1,7 C 92 % 1023,7 hPa 0,0 l/m 0 min 0 min 0 W/m 3,2 km/h (1 Bft) 100,00 %
23.02.2022 03:32 4,7 C 3,3 C 1,7 C 92 % 1023,7 hPa 0,0 l/m 0 min 0 min 0 W/m 3,2 km/h (1 Bft) 100,00 %
23.02.2022 03:34 4,7 C 3,3 C 1,1 C 92 % 1023,7 hPa 0,0 l/m 0 min 0 min 0 W/m 3,2 km/h (1 Bft) 100,00 %
23.02.2022 03:36 4,7 C 3,3 C 1,1 C 92 % 1023,7 hPa 0,0 l/m 0 min 0 min 0 W/m 3,2 km/h (1 Bft) 100,00 %
23.02.2022 03:38 4,6 C 3,3 C 1,1 C 92 % 1023,7 hPa 0,0 l/m 0 min 0 min 0 W/m 6,4 km/h (2 Bft) 100,00 %
23.02.2022 03:40 4,6 C 3,3 C 1,1 C 92 % 1023,7 hPa 0,0 l/m 0 min 0 min 0 W/m 3,2 km/h (1 Bft) 100,00 %
23.02.2022 03:42 4,6 C 3,3 C 1,1 C 92 % 1023,7 hPa 0,0 l/m 0 min 0 min 0 W/m 3,2 km/h (1 Bft) 100,00 %
23.02.2022 03:44 4,6 C 3,3 C 1,1 C 92 % 1023,7 hPa 0,0 l/m 0 min 0 min 0 W/m 3,2 km/h (1 Bft) 97,87 %
23.02.2022 03:46 4,6 C 3,3 C 1,1 C 92 % 1023,8 hPa 0,0 l/m 0 min 0 min 0 W/m 3,2 km/h (1 Bft) 98,00 %
23.02.2022 03:48 4,5 C 3,3 C 1,1 C 92 % 1023,8 hPa 0,0 l/m 0 min 0 min 0 W/m 3,2 km/h (1 Bft) 97,83 %
23.02.2022 03:50 4,5 C 3,3 C 1,1 C 92 % 1023,9 hPa 0,0 l/m 0 min 0 min 0 W/m 3,2 km/h (1 Bft) 97,96 %
23.02.2022 03:52 4,4 C 3,3 C 1,1 C 93 % 1023,9 hPa 0,0 l/m 0 min 0 min 0 W/m 6,4 km/h (2 Bft) 97,87 %
23.02.2022 03:54 4,4 C 3,3 C 1,1 C 92 % 1023,9 hPa 0,0 l/m 0 min 0 min 0 W/m 3,2 km/h (1 Bft) 95,74 %
23.02.2022 03:56 4,4 C 3,3 C 1,1 C 92 % 1024,0 hPa 0,0 l/m 0 min 0 min 0 W/m 3,2 km/h (1 Bft) 95,74 %
23.02.2022 03:58 4,4 C 3,3 C 1,1 C 92 % 1024,0 hPa 0,0 l/m 0 min 0 min 0 W/m 3,2 km/h (1 Bft) 97,37 %
23.02.2022 04:00 4,4 C 3,3 C 1,1 C 93 % 1024,0 hPa 0,0 l/m 0 min 0 min 0 W/m 6,4 km/h (2 Bft) 98,11 %
23.02.2022 04:05 4,4 C 3,3 C 1,1 C 93 % 1024,0 hPa 0,0 l/m 0 min 0 min 0 W/m 3,2 km/h (1 Bft) 94,64 %
23.02.2022 04:06 4,4 C 3,3 C 1,1 C 93 % 1024,0 hPa 0,0 l/m 0 min 0 min 0 W/m 3,2 km/h (1 Bft) 95,83 %
23.02.2022 04:08 4,3 C 3,3 C 1,1 C 93 % 1024,0 hPa 0,0 l/m 0 min 0 min 0 W/m 0,0 km/h (0 Bft) 95,74 %
23.02.2022 04:10 4,3 C 3,3 C 1,1 C 93 % 1024,1 hPa 0,0 l/m 0 min 0 min 0 W/m 3,2 km/h (1 Bft) 93,48 %
23.02.2022 04:12 4,3 C 3,3 C 1,1 C 93 % 1024,1 hPa 0,0 l/m 0 min 0 min 0 W/m 6,4 km/h (2 Bft) 95,74 %
23.02.2022 04:14 4,3 C 3,3 C 1,1 C 93 % 1024,1 hPa 0,0 l/m 0 min 0 min 0 W/m 3,2 km/h (1 Bft) 95,74 %
23.02.2022 04:16 4,3 C 3,3 C 1,1 C 93 % 1024,2 hPa 0,0 l/m 0 min 0 min 0 W/m 6,4 km/h (2 Bft) 98,00 %
23.02.2022 04:18 4,3 C 3,3 C 1,1 C 93 % 1024,2 hPa 0,0 l/m 0 min 0 min 0 W/m 6,4 km/h (2 Bft) 97,30 %
23.02.2022 04:20 4,3 C 3,3 C 1,1 C 93 % 1024,2 hPa 0,0 l/m 0 min 0 min 0 W/m 6,4 km/h (2 Bft) 97,87 %
23.02.2022 04:22 4,3 C 3,3 C 1,1 C 93 % 1024,2 hPa 0,0 l/m 0 min 0 min 0 W/m 6,4 km/h (2 Bft) 97,87 %
23.02.2022 04:24 4,2 C 3,3 C 1,1 C 93 % 1024,3 hPa 0,0 l/m 0 min 0 min 0 W/m 3,2 km/h (1 Bft) 95,65 %
23.02.2022 04:26 4,2 C 3,3 C 1,1 C 93 % 1024,3 hPa 0,0 l/m 0 min 0 min 0 W/m 6,4 km/h (2 Bft) 96,30 %
23.02.2022 04:28 4,2 C 3,3 C 1,1 C 93 % 1024,3 hPa 0,2 l/m 0 min 0 min 0 W/m 3,2 km/h (1 Bft) 98,00 %
23.02.2022 04:30 4,2 C 3,3 C 1,1 C 93 % 1024,3 hPa 0,0 l/m 0 min 0 min 0 W/m 6,4 km/h (2 Bft) 100,00 %
23.02.2022 04:32 4,2 C 3,3 C 1,1 C 93 % 1024,3 hPa 0,0 l/m 0 min 0 min 0 W/m 3,2 km/h (1 Bft) 97,87 %
23.02.2022 04:34 4,2 C 3,3 C 1,1 C 93 % 1024,3 hPa 0,0 l/m 0 min 0 min 0 W/m 3,2 km/h (1 Bft) 97,83 %
23.02.2022 04:36 4,1 C 3,3 C 1,1 C 93 % 1024,4 hPa 0,0 l/m 0 min 0 min 0 W/m 6,4 km/h (2 Bft) 98,15 %
23.02.2022 04:38 4,1 C 3,3 C 1,1 C 93 % 1024,4 hPa 0,0 l/m 0 min 0 min 0 W/m 3,2 km/h (1 Bft) 97,87 %
23.02.2022 04:40 4,1 C 3,3 C 1,1 C 93 % 1024,4 hPa 0,0 l/m 0 min 0 min 0 W/m 3,2 km/h (1 Bft) 100,00 %
23.02.2022 04:42 4,1 C 3,3 C 1,1 C 93 % 1024,4 hPa 0,0 l/m 0 min 0 min 0 W/m 3,2 km/h (1 Bft) 98,00 %
23.02.2022 04:44 4,1 C 3,3 C 1,1 C 93 % 1024,5 hPa 0,0 l/m 0 min 0 min 0 W/m 9,7 km/h (2 Bft) 97,83 %
23.02.2022 04:46 4,1 C 3,3 C 1,1 C 93 % 1024,5 hPa 0,0 l/m 0 min 0 min 0 W/m 0,0 km/h (0 Bft) 97,87 %
23.02.2022 04:48 4,1 C 3,3 C 1,1 C 93 % 1024,5 hPa 0,0 l/m 0 min 0 min 0 W/m 0,0 km/h (0 Bft) 94,59 %
23.02.2022 04:50 4,1 C 3,3 C 1,1 C 93 % 1024,6 hPa 0,0 l/m 0 min 0 min 0 W/m 3,2 km/h (1 Bft) 97,87 %
23.02.2022 04:52 4,1 C 3,3 C 1,1 C 94 % 1024,6 hPa 0,0 l/m 0 min 0 min 0 W/m 6,4 km/h (2 Bft) 98,15 %
23.02.2022 04:54 4,1 C 3,3 C 1,1 C 94 % 1024,6 hPa 0,0 l/m 0 min 0 min 0 W/m 6,4 km/h (2 Bft) 95,74 %
23.02.2022 04:56 4,1 C 3,3 C 1,1 C 94 % 1024,6 hPa 0,0 l/m 0 min 0 min 0 W/m 12,9 km/h (3 Bft) 100,00 %
23.02.2022 04:58 4,1 C 3,3 C 1,1 C 94 % 1024,7 hPa 0,0 l/m 0 min 0 min 0 W/m 6,4 km/h (2 Bft) 97,87 %
23.02.2022 05:00 4,1 C 3,3 C 1,1 C 93 % 1024,7 hPa 0,0 l/m 0 min 0 min 0 W/m 6,4 km/h (2 Bft) 97,87 %
23.02.2022 05:02 4,1 C 3,3 C 1,1 C 93 % 1024,7 hPa 0,0 l/m 0 min 0 min 0 W/m 3,2 km/h (1 Bft) 92,11 %
23.02.2022 05:04 4,1 C 3,3 C 1,1 C 93 % 1024,8 hPa 0,0 l/m 0 min 0 min 0 W/m 6,4 km/h (2 Bft) 98,00 %
23.02.2022 05:06 4,1 C 3,3 C 1,1 C 93 % 1024,9 hPa 0,0 l/m 0 min 0 min 0 W/m 6,4 km/h (2 Bft) 95,74 %
23.02.2022 05:08 4,1 C 3,3 C 1,1 C 93 % 1024,9 hPa 0,0 l/m 0 min 0 min 0 W/m 6,4 km/h (2 Bft) 97,87 %
23.02.2022 05:10 4,0 C 3,3 C 1,1 C 93 % 1024,9 hPa 0,0 l/m 0 min 0 min 0 W/m 6,4 km/h (2 Bft) 97,92 %
23.02.2022 05:12 4,0 C 3,3 C 1,1 C 93 % 1024,9 hPa 0,0 l/m 0 min 0 min 0 W/m 6,4 km/h (2 Bft) 95,74 %
23.02.2022 05:14 4,0 C 3,3 C 1,1 C 93 % 1025,0 hPa 0,0 l/m 0 min 0 min 0 W/m 9,7 km/h (2 Bft) 97,62 %
23.02.2022 05:16 3,9 C 3,3 C 1,1 C 93 % 1025,0 hPa 0,0 l/m 0 min 0 min 0 W/m 6,4 km/h (2 Bft) 98,00 %
23.02.2022 05:18 3,9 C 2,8 C 1,1 C 93 % 1025,1 hPa 0,0 l/m 0 min 0 min 0 W/m 3,2 km/h (1 Bft) 97,87 %
23.02.2022 05:20 3,9 C 2,8 C 1,1 C 93 % 1025,1 hPa 0,0 l/m 0 min 0 min 0 W/m 6,4 km/h (2 Bft) 93,75 %
23.02.2022 05:22 3,9 C 2,8 C 1,1 C 93 % 1025,1 hPa 0,0 l/m 0 min 0 min 0 W/m 6,4 km/h (2 Bft) 97,87 %
23.02.2022 05:24 3,9 C 2,8 C 1,1 C 93 % 1025,1 hPa 0,0 l/m 0 min 0 min 0 W/m 6,4 km/h (2 Bft) 97,87 %
23.02.2022 05:26 3,9 C 2,8 C 1,1 C 94 % 1025,2 hPa 0,0 l/m 0 min 0 min 0 W/m 6,4 km/h (2 Bft) 95,74 %
23.02.2022 05:28 3,9 C 2,8 C 1,1 C 93 % 1025,1 hPa 0,0 l/m 0 min 0 min 0 W/m 3,2 km/h (1 Bft) 95,74 %
23.02.2022 05:30 3,9 C 2,8 C 1,1 C 94 % 1025,1 hPa 0,0 l/m 0 min 0 min 0 W/m 3,2 km/h (1 Bft) 95,74 %
23.02.2022 05:32 3,8 C 2,8 C 1,1 C 94 % 1025,1 hPa 0,0 l/m 0 min 0 min 0 W/m 3,2 km/h (1 Bft) 95,12 %
23.02.2022 05:34 3,8 C 2,8 C 1,1 C 94 % 1025,2 hPa 0,0 l/m 0 min 0 min 0 W/m 3,2 km/h (1 Bft) 96,00 %
23.02.2022 05:36 3,8 C 2,8 C 1,1 C 94 % 1025,2 hPa 0,0 l/m 0 min 0 min 0 W/m 3,2 km/h (1 Bft) 95,74 %
23.02.2022 05:38 3,8 C 2,8 C 1,1 C 94 % 1025,3 hPa 0,0 l/m 0 min 0 min 0 W/m 6,4 km/h (2 Bft) 95,74 %
23.02.2022 05:40 3,7 C 2,8 C 1,1 C 94 % 1025,2 hPa 0,0 l/m 0 min 0 min 0 W/m 6,4 km/h (2 Bft) 95,74 %
23.02.2022 05:42 3,7 C 2,8 C 1,1 C 94 % 1025,3 hPa 0,0 l/m 0 min 0 min 0 W/m 3,2 km/h (1 Bft) 97,87 %
23.02.2022 05:44 3,7 C 2,8 C 1,1 C 94 % 1025,3 hPa 0,0 l/m 0 min 0 min 0 W/m 3,2 km/h (1 Bft) 91,67 %
23.02.2022 05:46 3,7 C 2,8 C 0,6 C 93 % 1025,3 hPa 0,0 l/m 0 min 0 min 0 W/m 3,2 km/h (1 Bft) 97,87 %
23.02.2022 05:48 3,7 C 2,8 C 0,6 C 93 % 1025,4 hPa 0,0 l/m 0 min 0 min 0 W/m 3,2 km/h (1 Bft) 97,62 %
23.02.2022 05:50 3,6 C 2,2 C 0,6 C 93 % 1025,4 hPa 0,0 l/m 0 min 0 min 0 W/m 6,4 km/h (2 Bft) 57,14 %
23.02.2022 05:52 3,6 C 2,2 C 0,6 C 93 % 1025,4 hPa 0,0 l/m 0 min 0 min 0 W/m 3,2 km/h (1 Bft) 95,74 %
23.02.2022 05:54 3,6 C 2,2 C 0,6 C 93 % 1025,5 hPa 0,0 l/m 0 min 0 min 0 W/m 3,2 km/h (1 Bft) 97,87 %
23.02.2022 05:56 3,6 C 2,2 C 0,6 C 93 % 1025,5 hPa 0,0 l/m 0 min 0 min 0 W/m 3,2 km/h (1 Bft) 97,92 %
23.02.2022 05:58 3,6 C 2,2 C 0,6 C 93 % 1025,5 hPa 0,0 l/m 0 min 0 min 0 W/m 3,2 km/h (1 Bft) 98,00 %
23.02.2022 06:00 3,5 C 2,2 C 0,6 C 93 % 1025,5 hPa 0,0 l/m 0 min 0 min 0 W/m 3,2 km/h (1 Bft) 100,00 %
23.02.2022 06:02 3,4 C 2,2 C 0,6 C 94 % 1025,5 hPa 0,0 l/m 0 min 0 min 0 W/m 0,0 km/h (0 Bft) 96,00 %
23.02.2022 06:04 3,4 C 2,2 C 0,0 C 93 % 1025,5 hPa 0,0 l/m 0 min 0 min 0 W/m 3,2 km/h (1 Bft) 98,00 %
23.02.2022 06:08 3,3 C 2,2 C 0,6 C 94 % 1025,6 hPa 0,0 l/m 0 min 0 min 0 W/m 6,4 km/h (2 Bft) 100,00 %
23.02.2022 06:10 3,3 C 2,2 C 0,6 C 94 % 1025,6 hPa 0,0 l/m 0 min 0 min 0 W/m 3,2 km/h (1 Bft) 100,00 %
23.02.2022 06:12 3,3 C 2,2 C 0,6 C 94 % 1025,6 hPa 0,0 l/m 0 min 0 min 0 W/m 9,7 km/h (2 Bft) 95,74 %
23.02.2022 06:14 3,3 C 2,2 C 0,6 C 94 % 1025,6 hPa 0,0 l/m 0 min 0 min 0 W/m 3,2 km/h (1 Bft) 97,87 %
23.02.2022 06:16 3,3 C 2,2 C 0,6 C 94 % 1025,6 hPa 0,0 l/m 0 min 0 min 0 W/m 3,2 km/h (1 Bft) 97,67 %
23.02.2022 06:18 3,3 C 2,2 C 0,6 C 94 % 1025,6 hPa 0,0 l/m 0 min 0 min 0 W/m 6,4 km/h (2 Bft) 95,92 %
23.02.2022 06:20 3,3 C 2,2 C 0,6 C 94 % 1025,6 hPa 0,0 l/m 0 min 0 min 0 W/m 3,2 km/h (1 Bft) 97,92 %
23.02.2022 06:22 3,3 C 2,2 C 0,6 C 94 % 1025,7 hPa 0,0 l/m 0 min 0 min 0 W/m 3,2 km/h (1 Bft) 93,62 %
23.02.2022 06:24 3,3 C 2,2 C 0,6 C 94 % 1025,6 hPa 0,0 l/m 0 min 0 min 0 W/m 3,2 km/h (1 Bft) 97,87 %
23.02.2022 06:26 3,3 C 2,2 C 0,6 C 94 % 1025,6 hPa 0,0 l/m 0 min 0 min 0 W/m 3,2 km/h (1 Bft) 97,67 %
23.02.2022 06:28 3,3 C 2,2 C 0,6 C 94 % 1025,6 hPa 0,0 l/m 0 min 0 min 0 W/m 3,2 km/h (1 Bft) 98,00 %
23.02.2022 06:30 3,3 C 2,2 C 0,6 C 94 % 1025,7 hPa 0,0 l/m 0 min 0 min 0 W/m 3,2 km/h (1 Bft) 97,83 %
23.02.2022 06:32 3,3 C 2,2 C 0,6 C 94 % 1025,7 hPa 0,0 l/m 0 min 0 min 0 W/m 3,2 km/h (1 Bft) 97,92 %
23.02.2022 06:34 3,3 C 2,2 C 0,6 C 94 % 1025,7 hPa 0,0 l/m 0 min 0 min 0 W/m 3,2 km/h (1 Bft) 97,87 %
23.02.2022 06:36 3,2 C 2,2 C 0,6 C 94 % 1025,6 hPa 0,0 l/m 0 min 0 min 0 W/m 3,2 km/h (1 Bft) 97,87 %
23.02.2022 06:38 3,2 C 2,2 C 0,6 C 94 % 1025,7 hPa 0,0 l/m 0 min 0 min 0 W/m 3,2 km/h (1 Bft) 95,74 %
23.02.2022 06:40 3,2 C 2,2 C 0,0 C 94 % 1025,7 hPa 0,0 l/m 0 min 0 min 0 W/m 0,0 km/h (0 Bft) 97,87 %
23.02.2022 06:42 3,2 C 2,2 C 0,0 C 94 % 1025,7 hPa 0,0 l/m 0 min 0 min 0 W/m 0,0 km/h (0 Bft) 98,15 %
23.02.2022 06:44 3,2 C 2,2 C 0,0 C 94 % 1025,8 hPa 0,0 l/m 0 min 0 min 0 W/m 0,0 km/h (0 Bft) 97,87 %
23.02.2022 06:46 3,2 C 2,2 C 0,0 C 94 % 1025,8 hPa 0,0 l/m 0 min 0 min 0 W/m 3,2 km/h (1 Bft) 97,14 %
23.02.2022 06:48 3,1 C 1,7 C 0,0 C 94 % 1025,8 hPa 0,0 l/m 0 min 0 min 0 W/m 3,2 km/h (1 Bft) 100,00 %
23.02.2022 06:50 3,1 C 1,7 C 0,0 C 94 % 1025,8 hPa 0,0 l/m 0 min 0 min 0 W/m 3,2 km/h (1 Bft) 100,00 %
23.02.2022 06:52 3,1 C 1,7 C 0,0 C 94 % 1025,9 hPa 0,0 l/m 0 min 0 min 0 W/m 0,0 km/h (0 Bft) 100,00 %
23.02.2022 06:54 3,1 C 1,7 C 0,0 C 94 % 1025,9 hPa 0,0 l/m 0 min 0 min 0 W/m 0,0 km/h (0 Bft) 100,00 %
23.02.2022 06:56 3,1 C 1,7 C 0,0 C 94 % 1025,9 hPa 0,0 l/m 0 min 0 min 0 W/m 0,0 km/h (0 Bft) 100,00 %
23.02.2022 06:58 3,0 C 1,7 C 0,0 C 94 % 1026,0 hPa 0,0 l/m 0 min 0 min 0 W/m 0,0 km/h (0 Bft) 97,92 %
23.02.2022 07:00 3,0 C 1,7 C 0,0 C 94 % 1025,9 hPa 0,0 l/m 0 min 0 min 0 W/m 0,0 km/h (0 Bft) 100,00 %
23.02.2022 07:04 2,9 C 1,7 C 0,0 C 94 % 1025,9 hPa 0,0 l/m 0 min 0 min 0 W/m 3,2 km/h (1 Bft) 100,00 %
23.02.2022 07:06 2,9 C 1,7 C 0,0 C 94 % 1025,9 hPa 0,0 l/m 0 min 0 min 0 W/m 3,2 km/h (1 Bft) 100,00 %
23.02.2022 07:08 2,9 C 1,7 C 0,0 C 94 % 1025,9 hPa 0,0 l/m 0 min 0 min 0 W/m 6,4 km/h (2 Bft) 100,00 %
23.02.2022 07:10 2,9 C 1,7 C 0,0 C 94 % 1025,9 hPa 0,0 l/m 0 min 0 min 0 W/m 3,2 km/h (1 Bft) 100,00 %
23.02.2022 07:12 2,9 C 1,7 C 0,0 C 94 % 1025,9 hPa 0,0 l/m 0 min 0 min 0 W/m 3,2 km/h (1 Bft) 100,00 %
23.02.2022 07:14 2,9 C 1,7 C 0,0 C 94 % 1025,9 hPa 0,0 l/m 0 min 0 min 0 W/m 6,4 km/h (2 Bft) 95,92 %
23.02.2022 07:16 2,9 C 1,7 C 0,0 C 94 % 1026,0 hPa 0,0 l/m 0 min 0 min 0 W/m 3,2 km/h (1 Bft) 97,96 %
23.02.2022 07:18 2,9 C 1,7 C 0,0 C 94 % 1026,0 hPa 0,0 l/m 0 min 0 min 0 W/m 3,2 km/h (1 Bft) 97,87 %
23.02.2022 07:20 2,9 C 1,7 C 0,0 C 94 % 1026,0 hPa 0,0 l/m 0 min 0 min 0 W/m 3,2 km/h (1 Bft) 95,45 %
23.02.2022 07:22 2,9 C 1,7 C 0,0 C 94 % 1026,1 hPa 0,0 l/m 0 min 0 min 0 W/m 3,2 km/h (1 Bft) 97,87 %
23.02.2022 07:24 2,9 C 1,7 C 0,0 C 94 % 1026,1 hPa 0,0 l/m 0 min 0 min 0 W/m 6,4 km/h (2 Bft) 98,00 %
23.02.2022 07:26 2,9 C 2,2 C 0,0 C 94 % 1026,1 hPa 0,0 l/m 0 min 0 min 0 W/m 3,2 km/h (1 Bft) 97,87 %
23.02.2022 07:28 2,9 C 2,2 C 0,6 C 94 % 1026,1 hPa 0,0 l/m 0 min 0 min 0 W/m 3,2 km/h (1 Bft) 97,83 %
23.02.2022 07:30 2,9 C 2,2 C 0,0 C 94 % 1026,2 hPa 0,0 l/m 0 min 0 min 0 W/m 3,2 km/h (1 Bft) 97,73 %
23.02.2022 07:32 2,9 C 2,2 C 0,0 C 94 % 1026,2 hPa 0,0 l/m 0 min 0 min 3 W/m 6,4 km/h (2 Bft) 98,00 %
23.02.2022 07:34 2,9 C 1,7 C 0,0 C 94 % 1026,2 hPa 0,0 l/m 0 min 0 min 5 W/m 6,4 km/h (2 Bft) 95,74 %
23.02.2022 07:36 2,8 C 1,7 C 0,0 C 94 % 1026,2 hPa 0,0 l/m 0 min 0 min 5 W/m 6,4 km/h (2 Bft) 98,00 %
23.02.2022 07:38 2,8 C 1,7 C 0,0 C 94 % 1026,1 hPa 0,0 l/m 0 min 0 min 7 W/m 6,4 km/h (2 Bft) 95,65 %
23.02.2022 07:40 2,9 C 2,2 C 0,6 C 95 % 1026,2 hPa 0,0 l/m 0 min 0 min 7 W/m 3,2 km/h (1 Bft) 97,87 %
23.02.2022 07:42 2,9 C 2,2 C 0,6 C 95 % 1026,2 hPa 0,0 l/m 0 min 0 min 8 W/m 3,2 km/h (1 Bft) 97,87 %
23.02.2022 07:44 2,9 C 2,2 C 0,0 C 95 % 1026,2 hPa 0,0 l/m 0 min 0 min 9 W/m 6,4 km/h (2 Bft) 97,14 %
23.02.2022 07:46 2,9 C 2,2 C 0,0 C 94 % 1026,2 hPa 0,0 l/m 0 min 0 min 11 W/m 6,4 km/h (2 Bft) 98,21 %
23.02.2022 07:48 2,8 C 2,2 C 0,0 C 94 % 1026,2 hPa 0,0 l/m 0 min 0 min 11 W/m 6,4 km/h (2 Bft) 100,00 %
23.02.2022 07:50 2,9 C 2,2 C 0,6 C 94 % 1026,2 hPa 0,0 l/m 0 min 0 min 12 W/m 3,2 km/h (1 Bft) 100,00 %
23.02.2022 07:52 2,9 C 2,2 C 0,6 C 95 % 1026,3 hPa 0,0 l/m 0 min 0 min 12 W/m 6,4 km/h (2 Bft) 100,00 %
23.02.2022 07:54 2,9 C 2,2 C 0,6 C 95 % 1026,3 hPa 0,0 l/m 0 min 0 min 13 W/m 9,7 km/h (2 Bft) 100,00 %
23.02.2022 07:56 2,9 C 2,2 C 0,6 C 95 % 1026,3 hPa 0,0 l/m 0 min 0 min 14 W/m 6,4 km/h (2 Bft) 100,00 %
23.02.2022 07:58 2,9 C 2,2 C 0,6 C 95 % 1026,3 hPa 0,0 l/m 0 min 0 min 15 W/m 3,2 km/h (1 Bft) 100,00 %
23.02.2022 08:00 2,9 C 2,2 C 0,6 C 95 % 1026,3 hPa 0,0 l/m 0 min 0 min 16 W/m 12,9 km/h (3 Bft) 100,00 %
23.02.2022 08:02 2,9 C 2,2 C 0,6 C 95 % 1026,3 hPa 0,0 l/m 0 min 0 min 16 W/m 6,4 km/h (2 Bft) 94,29 %
23.02.2022 08:04 3,0 C 2,2 C 0,6 C 95 % 1026,3 hPa 0,0 l/m 0 min 0 min 18 W/m 9,7 km/h (2 Bft) 100,00 %
23.02.2022 08:06 3,0 C 2,2 C 0,6 C 95 % 1026,3 hPa 0,0 l/m 0 min 0 min 18 W/m 6,4 km/h (2 Bft) 95,74 %
23.02.2022 08:08 3,1 C 2,2 C 0,6 C 95 % 1026,3 hPa 0,0 l/m 0 min 0 min 19 W/m 6,4 km/h (2 Bft) 95,74 %
23.02.2022 08:10 3,1 C 2,2 C 0,6 C 95 % 1026,3 hPa 0,0 l/m 0 min 0 min 19 W/m 9,7 km/h (2 Bft) 97,87 %
23.02.2022 08:12 3,1 C 2,2 C 0,6 C 95 % 1026,3 hPa 0,0 l/m 0 min 0 min 20 W/m 6,4 km/h (2 Bft) 96,00 %
23.02.2022 08:14 3,1 C 2,8 C 0,6 C 95 % 1026,3 hPa 0,0 l/m 0 min 0 min 21 W/m 6,4 km/h (2 Bft) 94,29 %
23.02.2022 08:16 3,1 C 2,8 C 0,6 C 95 % 1026,4 hPa 0,0 l/m 0 min 0 min 21 W/m 6,4 km/h (2 Bft) 98,18 %
23.02.2022 08:18 3,2 C 2,8 C 0,6 C 95 % 1026,4 hPa 0,0 l/m 0 min 0 min 23 W/m 12,9 km/h (3 Bft) 98,00 %
23.02.2022 08:20 3,2 C 2,8 C 1,1 C 95 % 1026,4 hPa 0,0 l/m 0 min 0 min 23 W/m 16,1 km/h (3 Bft) 94,29 %
23.02.2022 08:22 3,3 C 2,8 C 1,1 C 95 % 1026,4 hPa 0,0 l/m 0 min 0 min 24 W/m 12,9 km/h (3 Bft) 93,62 %
23.02.2022 08:24 3,3 C 2,8 C 1,1 C 95 % 1026,4 hPa 0,0 l/m 0 min 0 min 25 W/m 6,4 km/h (2 Bft) 92,45 %
23.02.2022 08:26 3,4 C 2,8 C 1,1 C 95 % 1026,5 hPa 0,0 l/m 0 min 0 min 25 W/m 16,1 km/h (3 Bft) 95,92 %
23.02.2022 08:28 3,4 C 2,8 C 1,1 C 95 % 1026,5 hPa 0,0 l/m 0 min 0 min 26 W/m 9,7 km/h (2 Bft) 97,87 %
23.02.2022 08:30 3,4 C 3,3 C 1,1 C 95 % 1026,5 hPa 0,0 l/m 0 min 0 min 26 W/m 9,7 km/h (2 Bft) 94,00 %
23.02.2022 08:32 3,5 C 3,3 C 1,1 C 95 % 1026,4 hPa 0,0 l/m 0 min 0 min 26 W/m 9,7 km/h (2 Bft) 94,29 %
23.02.2022 08:34 3,5 C 3,3 C 1,1 C 95 % 1026,5 hPa 0,0 l/m 0 min 0 min 28 W/m 9,7 km/h (2 Bft) 96,43 %
23.02.2022 08:36 3,6 C 3,3 C 1,1 C 95 % 1026,5 hPa 0,0 l/m 0 min 0 min 28 W/m 12,9 km/h (3 Bft) 95,92 %
23.02.2022 08:38 3,6 C 3,3 C 1,1 C 95 % 1026,6 hPa 0,0 l/m 0 min 0 min 28 W/m 6,4 km/h (2 Bft) 95,74 %
23.02.2022 08:40 3,6 C 3,3 C 1,1 C 95 % 1026,6 hPa 0,0 l/m 0 min 0 min 30 W/m 6,4 km/h (2 Bft) 93,62 %
23.02.2022 08:42 3,6 C 3,3 C 1,1 C 95 % 1026,6 hPa 0,0 l/m 0 min 0 min 30 W/m 6,4 km/h (2 Bft) 94,29 %
23.02.2022 08:43 3,7 C 3,3 C 1,1 C 95 % 1026,6 hPa 0,0 l/m 0 min 0 min 31 W/m 6,4 km/h (2 Bft) 94,34 %
23.02.2022 08:46 3,7 C 3,3 C 1,1 C 95 % 1026,7 hPa 0,0 l/m 0 min 0 min 32 W/m 9,7 km/h (2 Bft) 96,00 %
23.02.2022 08:48 3,7 C 3,3 C 1,1 C 95 % 1026,7 hPa 0,0 l/m 0 min 0 min 50 W/m 12,9 km/h (3 Bft) 95,65 %
23.02.2022 08:50 3,8 C 3,3 C 1,1 C 95 % 1026,8 hPa 0,0 l/m 2 min 0 min 115 W/m 9,7 km/h (2 Bft) 95,74 %
23.02.2022 08:52 3,8 C 3,9 C 1,7 C 95 % 1026,8 hPa 0,0 l/m 2 min 0 min 128 W/m 9,7 km/h (2 Bft) 93,62 %
23.02.2022 08:54 3,9 C 3,9 C 1,7 C 95 % 1026,8 hPa 0,0 l/m 2 min 0 min 102 W/m 12,9 km/h (3 Bft) 95,74 %
23.02.2022 08:56 4,0 C 4,4 C 1,7 C 95 % 1026,8 hPa 0,0 l/m 0 min 0 min 78 W/m 12,9 km/h (3 Bft) 97,87 %
23.02.2022 08:58 4,1 C 5,6 C 1,7 C 95 % 1026,8 hPa 0,0 l/m 0 min 0 min 76 W/m 6,4 km/h (2 Bft) 100,00 %
23.02.2022 09:00 4,2 C 6,1 C 1,7 C 95 % 1026,9 hPa 0,0 l/m 2 min 0 min 123 W/m 12,9 km/h (3 Bft) 100,00 %
23.02.2022 09:02 4,3 C 6,7 C 1,7 C 95 % 1026,9 hPa 0,0 l/m 2 min 0 min 118 W/m 9,7 km/h (2 Bft) 100,00 %
23.02.2022 09:04 4,3 C 7,2 C 1,7 C 95 % 1026,9 hPa 0,0 l/m 0 min 0 min 64 W/m 6,4 km/h (2 Bft) 98,00 %
23.02.2022 09:06 4,4 C 6,7 C 1,7 C 95 % 1026,9 hPa 0,0 l/m 0 min 0 min 98 W/m 12,9 km/h (3 Bft) 100,00 %
23.02.2022 09:08 4,5 C 6,7 C 2,2 C 95 % 1026,9 hPa 0,0 l/m 2 min 0 min 118 W/m 6,4 km/h (2 Bft) 100,00 %
23.02.2022 09:10 4,6 C 6,7 C 2,2 C 95 % 1026,9 hPa 0,0 l/m 2 min 0 min 116 W/m 16,1 km/h (3 Bft) 97,87 %
23.02.2022 09:12 4,7 C 6,7 C 2,2 C 95 % 1026,9 hPa 0,0 l/m 0 min 0 min 75 W/m 16,1 km/h (3 Bft) 95,65 %
23.02.2022 09:14 4,7 C 6,7 C 2,2 C 95 % 1026,9 hPa 0,0 l/m 0 min 0 min 66 W/m 12,9 km/h (3 Bft) 95,74 %
23.02.2022 09:16 4,8 C 6,7 C 2,2 C 95 % 1026,9 hPa 0,0 l/m 0 min 0 min 67 W/m 9,7 km/h (2 Bft) 97,87 %
23.02.2022 09:18 4,9 C 6,7 C 2,2 C 95 % 1026,9 hPa 0,0 l/m 0 min 0 min 61 W/m 19,3 km/h (3 Bft) 100,00 %
23.02.2022 09:20 4,9 C 6,7 C 2,2 C 95 % 1026,9 hPa 0,0 l/m 0 min 0 min 80 W/m 12,9 km/h (3 Bft) 97,87 %
23.02.2022 09:22 5,1 C 6,7 C 2,8 C 95 % 1026,9 hPa 0,0 l/m 0 min 0 min 107 W/m 16,1 km/h (3 Bft) 97,87 %
23.02.2022 09:24 5,1 C 6,7 C 2,8 C 94 % 1026,9 hPa 0,0 l/m 0 min 0 min 123 W/m 16,1 km/h (3 Bft) 97,83 %
23.02.2022 09:26 5,2 C 7,2 C 2,8 C 94 % 1026,9 hPa 0,0 l/m 0 min 0 min 105 W/m 16,1 km/h (3 Bft) 95,74 %
23.02.2022 09:28 5,3 C 6,7 C 2,8 C 94 % 1027,0 hPa 0,0 l/m 0 min 0 min 108 W/m 16,1 km/h (3 Bft) 97,87 %
23.02.2022 09:30 5,4 C 6,7 C 2,8 C 94 % 1027,0 hPa 0,0 l/m 2 min 0 min 159 W/m 9,7 km/h (2 Bft) 97,87 %
23.02.2022 09:32 5,4 C 6,7 C 2,8 C 94 % 1027,0 hPa 0,0 l/m 2 min 0 min 144 W/m 19,3 km/h (3 Bft) 97,87 %
23.02.2022 09:34 5,5 C 7,2 C 2,8 C 93 % 1027,0 hPa 0,0 l/m 2 min 0 min 228 W/m 12,9 km/h (3 Bft) 97,87 %
23.02.2022 09:36 5,6 C 7,2 C 2,8 C 93 % 1027,0 hPa 0,0 l/m 2 min 0 min 169 W/m 16,1 km/h (3 Bft) 97,83 %
23.02.2022 09:38 5,7 C 7,2 C 3,3 C 93 % 1027,1 hPa 0,0 l/m 0 min 0 min 73 W/m 12,9 km/h (3 Bft) 97,87 %
23.02.2022 09:40 5,7 C 7,2 C 3,3 C 93 % 1027,1 hPa 0,0 l/m 0 min 0 min 106 W/m 16,1 km/h (3 Bft) 97,87 %
23.02.2022 09:42 5,8 C 7,2 C 3,3 C 93 % 1027,1 hPa 0,0 l/m 0 min 0 min 96 W/m 12,9 km/h (3 Bft) 100,00 %
23.02.2022 09:44 5,8 C 6,7 C 3,3 C 92 % 1027,1 hPa 0,0 l/m 0 min 0 min 72 W/m 19,3 km/h (3 Bft) 97,87 %
23.02.2022 09:46 5,9 C 6,7 C 3,3 C 92 % 1027,0 hPa 0,0 l/m 0 min 0 min 83 W/m 12,9 km/h (3 Bft) 97,87 %
23.02.2022 09:48 6,0 C 6,7 C 3,3 C 92 % 1027,0 hPa 0,0 l/m 0 min 0 min 135 W/m 19,3 km/h (3 Bft) 100,00 %
23.02.2022 09:50 6,1 C 6,7 C 3,3 C 92 % 1027,0 hPa 0,0 l/m 0 min 0 min 141 W/m 19,3 km/h (3 Bft) 100,00 %
23.02.2022 09:52 6,1 C 6,7 C 3,3 C 92 % 1027,1 hPa 0,0 l/m 0 min 0 min 118 W/m 19,3 km/h (3 Bft) 100,00 %
23.02.2022 09:54 6,2 C 6,7 C 3,3 C 91 % 1027,1 hPa 0,0 l/m 2 min 0 min 223 W/m 19,3 km/h (3 Bft) 100,00 %
23.02.2022 09:56 6,2 C 6,7 C 3,9 C 91 % 1027,1 hPa 0,0 l/m 2 min 0 min 253 W/m 22,5 km/h (4 Bft) 100,00 %
23.02.2022 09:58 6,3 C 7,8 C 3,9 C 91 % 1027,1 hPa 0,0 l/m 2 min 0 min 260 W/m 16,1 km/h (3 Bft) 100,00 %
23.02.2022 10:00 6,4 C 8,3 C 3,9 C 91 % 1027,2 hPa 0,0 l/m 2 min 0 min 206 W/m 12,9 km/h (3 Bft) 100,00 %
23.02.2022 10:02 6,5 C 8,9 C 3,9 C 90 % 1027,1 hPa 0,0 l/m 0 min 0 min 84 W/m 12,9 km/h (3 Bft) 100,00 %
23.02.2022 10:04 6,6 C 8,9 C 3,9 C 90 % 1027,2 hPa 0,0 l/m 0 min 0 min 115 W/m 12,9 km/h (3 Bft) 100,00 %
23.02.2022 10:06 6,6 C 9,4 C 3,9 C 90 % 1027,2 hPa 0,0 l/m 0 min 0 min 82 W/m 12,9 km/h (3 Bft) 100,00 %
23.02.2022 10:08 6,7 C 10,0 C 4,4 C 90 % 1027,2 hPa 0,0 l/m 0 min 0 min 118 W/m 12,9 km/h (3 Bft) 100,00 %
23.02.2022 10:10 6,8 C 10,0 C 4,4 C 90 % 1027,2 hPa 0,0 l/m 2 min 0 min 290 W/m 12,9 km/h (3 Bft) 100,00 %
23.02.2022 10:12 6,9 C 10,6 C 4,4 C 89 % 1027,2 hPa 0,0 l/m 2 min 0 min 333 W/m 12,9 km/h (3 Bft) 100,00 %
23.02.2022 10:14 7,0 C 11,1 C 4,4 C 89 % 1027,1 hPa 0,0 l/m 2 min 0 min 346 W/m 16,1 km/h (3 Bft) 100,00 %
23.02.2022 10:16 7,1 C 11,7 C 4,4 C 89 % 1027,2 hPa 0,0 l/m 2 min 0 min 328 W/m 19,3 km/h (3 Bft) 97,87 %
23.02.2022 10:18 7,2 C 12,2 C 4,4 C 88 % 1027,2 hPa 0,0 l/m 2 min 0 min 260 W/m 19,3 km/h (3 Bft) 97,87 %
23.02.2022 10:20 7,3 C 12,2 C 5,0 C 88 % 1027,2 hPa 0,0 l/m 2 min 0 min 209 W/m 9,7 km/h (2 Bft) 100,00 %
23.02.2022 10:22 7,4 C 13,3 C 5,0 C 88 % 1027,2 hPa 0,0 l/m 2 min 0 min 196 W/m 16,1 km/h (3 Bft) 100,00 %
23.02.2022 10:24 7,4 C 13,3 C 5,0 C 88 % 1027,2 hPa 0,0 l/m 2 min 0 min 266 W/m 16,1 km/h (3 Bft) 100,00 %
23.02.2022 10:26 7,6 C 13,3 C 5,0 C 87 % 1027,2 hPa 0,0 l/m 2 min 0 min 238 W/m 19,3 km/h (3 Bft) 100,00 %
23.02.2022 10:28 7,6 C 13,3 C 5,0 C 87 % 1027,2 hPa 0,0 l/m 2 min 0 min 272 W/m 19,3 km/h (3 Bft) 100,00 %
23.02.2022 10:30 7,7 C 13,9 C 5,0 C 87 % 1027,2 hPa 0,0 l/m 2 min 0 min 355 W/m 12,9 km/h (3 Bft) 100,00 %
23.02.2022 10:32 7,8 C 15,0 C 5,6 C 86 % 1027,2 hPa 0,0 l/m 2 min 0 min 394 W/m 12,9 km/h (3 Bft) 100,00 %
23.02.2022 10:34 7,9 C 15,6 C 5,6 C 86 % 1027,2 hPa 0,0 l/m 2 min 0 min 399 W/m 16,1 km/h (3 Bft) 97,83 %
23.02.2022 10:36 8,1 C 16,1 C 5,6 C 86 % 1027,2 hPa 0,0 l/m 2 min 0 min 399 W/m 19,3 km/h (3 Bft) 97,87 %
23.02.2022 10:38 8,2 C 16,1 C 5,6 C 85 % 1027,2 hPa 0,0 l/m 2 min 0 min 401 W/m 16,1 km/h (3 Bft) 100,00 %
23.02.2022 10:40 8,3 C 15,6 C 5,6 C 85 % 1027,2 hPa 0,0 l/m 2 min 0 min 406 W/m 19,3 km/h (3 Bft) 100,00 %
23.02.2022 10:42 8,3 C 16,1 C 6,1 C 85 % 1027,2 hPa 0,0 l/m 2 min 0 min 409 W/m 16,1 km/h (3 Bft) 100,00 %
23.02.2022 10:44 8,5 C 16,7 C 6,1 C 85 % 1027,2 hPa 0,0 l/m 2 min 0 min 396 W/m 12,9 km/h (3 Bft) 100,00 %
23.02.2022 10:46 8,6 C 16,7 C 6,1 C 84 % 1027,2 hPa 0,0 l/m 2 min 0 min 420 W/m 22,5 km/h (4 Bft) 97,83 %
23.02.2022 10:48 8,7 C 16,1 C 6,7 C 83 % 1027,2 hPa 0,0 l/m 2 min 0 min 425 W/m 19,3 km/h (3 Bft) 97,87 %
23.02.2022 10:50 8,7 C 15,6 C 6,7 C 83 % 1027,2 hPa 0,0 l/m 2 min 0 min 428 W/m 25,7 km/h (4 Bft) 95,74 %
23.02.2022 10:52 8,8 C 16,1 C 6,7 C 82 % 1027,2 hPa 0,0 l/m 2 min 0 min 433 W/m 19,3 km/h (3 Bft) 97,87 %
23.02.2022 10:54 8,8 C 16,1 C 6,7 C 82 % 1027,2 hPa 0,0 l/m 2 min 0 min 434 W/m 19,3 km/h (3 Bft) 97,87 %
23.02.2022 10:56 8,8 C 16,7 C 6,7 C 82 % 1027,1 hPa 0,0 l/m 2 min 0 min 436 W/m 16,1 km/h (3 Bft) 97,87 %
23.02.2022 10:58 8,9 C 17,2 C 6,7 C 82 % 1027,2 hPa 0,0 l/m 2 min 0 min 422 W/m 9,7 km/h (2 Bft) 95,92 %
23.02.2022 11:00 8,9 C 17,2 C 7,2 C 82 % 1027,1 hPa 0,0 l/m 2 min 0 min 359 W/m 16,1 km/h (3 Bft) 95,74 %
23.02.2022 11:02 9,1 C 17,8 C 7,2 C 82 % 1027,2 hPa 0,0 l/m 2 min 0 min 390 W/m 12,9 km/h (3 Bft) 98,00 %
23.02.2022 11:04 9,2 C 18,9 C 7,2 C 82 % 1027,1 hPa 0,0 l/m 2 min 0 min 398 W/m 9,7 km/h (2 Bft) 97,87 %
23.02.2022 11:06 9,2 C 18,9 C 8,3 C 82 % 1027,1 hPa 0,0 l/m 2 min 0 min 399 W/m 19,3 km/h (3 Bft) 97,87 %
23.02.2022 11:08 9,3 C 18,3 C 9,4 C 81 % 1027,1 hPa 0,0 l/m 2 min 0 min 425 W/m 16,1 km/h (3 Bft) 95,65 %
23.02.2022 11:10 9,3 C 17,8 C 10,6 C 80 % 1027,2 hPa 0,0 l/m 2 min 0 min 464 W/m 16,1 km/h (3 Bft) 95,74 %
23.02.2022 11:12 9,4 C 18,3 C 11,1 C 81 % 1027,1 hPa 0,0 l/m 2 min 0 min 470 W/m 22,5 km/h (4 Bft) 95,74 %
23.02.2022 11:14 9,4 C 18,3 C 12,2 C 81 % 1027,1 hPa 0,0 l/m 2 min 0 min 473 W/m 12,9 km/h (3 Bft) 95,74 %
23.02.2022 11:16 9,5 C 17,8 C 12,8 C 81 % 1027,1 hPa 0,0 l/m 2 min 0 min 475 W/m 16,1 km/h (3 Bft) 91,49 %
23.02.2022 11:18 9,6 C 18,9 C 13,3 C 81 % 1027,0 hPa 0,0 l/m 2 min 0 min 481 W/m 12,9 km/h (3 Bft) 95,74 %
23.02.2022 11:20 9,7 C 18,9 C 13,3 C 81 % 1027,1 hPa 0,0 l/m 2 min 0 min 482 W/m 22,5 km/h (4 Bft) 95,65 %
23.02.2022 11:22 9,8 C 18,3 C 12,8 C 80 % 1027,1 hPa 0,0 l/m 2 min 0 min 484 W/m 16,1 km/h (3 Bft) 95,74 %
23.02.2022 11:24 9,8 C 18,9 C 13,3 C 79 % 1027,1 hPa 0,0 l/m 2 min 0 min 487 W/m 19,3 km/h (3 Bft) 95,74 %
23.02.2022 11:26 9,8 C 18,9 C 13,9 C 79 % 1027,1 hPa 0,0 l/m 2 min 0 min 493 W/m 12,9 km/h (3 Bft) 95,74 %
23.02.2022 11:28 9,9 C 19,4 C 14,4 C 79 % 1027,0 hPa 0,0 l/m 2 min 0 min 492 W/m 16,1 km/h (3 Bft) 91,49 %
23.02.2022 11:30 10,0 C 18,3 C 13,9 C 79 % 1027,1 hPa 0,0 l/m 2 min 0 min 496 W/m 25,7 km/h (4 Bft) 95,65 %
23.02.2022 11:32 10,0 C 17,8 C 13,9 C 78 % 1027,0 hPa 0,0 l/m 2 min 0 min 499 W/m 19,3 km/h (3 Bft) 95,74 %
23.02.2022 11:34 10,1 C 17,8 C 13,9 C 78 % 1027,0 hPa 0,0 l/m 2 min 0 min 501 W/m 22,5 km/h (4 Bft) 93,62 %
23.02.2022 11:36 10,1 C 16,7 C 13,3 C 77 % 1027,0 hPa 0,0 l/m 2 min 0 min 504 W/m 32,2 km/h (5 Bft) 94,74 %
23.02.2022 11:38 10,1 C 17,2 C 13,3 C 77 % 1027,0 hPa 0,0 l/m 2 min 0 min 508 W/m 22,5 km/h (4 Bft) 97,87 %
23.02.2022 11:40 10,1 C 16,7 C 13,3 C 77 % 1027,0 hPa 0,0 l/m 2 min 0 min 509 W/m 19,3 km/h (3 Bft) 97,87 %
23.02.2022 11:42 10,1 C 16,7 C 12,8 C 76 % 1026,9 hPa 0,0 l/m 2 min 0 min 511 W/m 35,4 km/h (5 Bft) 100,00 %
23.02.2022 11:44 10,0 C 16,7 C 12,2 C 76 % 1026,9 hPa 0,0 l/m 2 min 0 min 516 W/m 22,5 km/h (4 Bft) 100,00 %
23.02.2022 11:46 9,9 C 16,1 C 11,7 C 76 % 1026,9 hPa 0,0 l/m 2 min 0 min 512 W/m 22,5 km/h (4 Bft) 100,00 %
23.02.2022 11:48 10,0 C 14,4 C 10,6 C 76 % 1026,9 hPa 0,0 l/m 2 min 0 min 465 W/m 35,4 km/h (5 Bft) 100,00 %
23.02.2022 11:50 10,1 C 15,0 C 10,6 C 76 % 1026,9 hPa 0,0 l/m 2 min 0 min 395 W/m 25,7 km/h (4 Bft) 100,00 %
23.02.2022 11:52 10,1 C 14,4 C 10,6 C 75 % 1026,9 hPa 0,0 l/m 2 min 0 min 427 W/m 22,5 km/h (4 Bft) 100,00 %
23.02.2022 11:54 10,1 C 13,9 C 10,6 C 74 % 1026,9 hPa 0,0 l/m 2 min 0 min 378 W/m 19,3 km/h (3 Bft) 100,00 %
23.02.2022 11:56 10,1 C 14,4 C 10,6 C 75 % 1026,9 hPa 0,0 l/m 2 min 0 min 291 W/m 29,0 km/h (5 Bft) 97,83 %
23.02.2022 11:58 10,2 C 15,0 C 10,6 C 75 % 1026,9 hPa 0,0 l/m 2 min 0 min 327 W/m 16,1 km/h (3 Bft) 100,00 %
23.02.2022 12:00 10,2 C 14,4 C 10,0 C 74 % 1026,9 hPa 0,0 l/m 2 min 0 min 249 W/m 22,5 km/h (4 Bft) 100,00 %
23.02.2022 12:02 10,2 C 15,0 C 10,0 C 74 % 1026,9 hPa 0,0 l/m 2 min 0 min 262 W/m 12,9 km/h (3 Bft) 100,00 %
23.02.2022 12:04 10,3 C 14,4 C 10,0 C 74 % 1026,9 hPa 0,0 l/m 0 min 0 min 199 W/m 12,9 km/h (3 Bft) 100,00 %
23.02.2022 12:08 10,5 C 13,3 C 9,4 C 75 % 1026,8 hPa 0,0 l/m 0 min 0 min 136 W/m 19,3 km/h (3 Bft) 100,00 %
23.02.2022 12:10 10,6 C 13,3 C 10,0 C 75 % 1026,8 hPa 0,0 l/m 0 min 0 min 79 W/m 16,1 km/h (3 Bft) 100,00 %
23.02.2022 12:12 10,6 C 12,8 C 10,0 C 75 % 1026,7 hPa 0,0 l/m 0 min 0 min 63 W/m 25,7 km/h (4 Bft) 100,00 %
23.02.2022 12:14 10,6 C 11,7 C 9,4 C 74 % 1026,8 hPa 0,0 l/m 0 min 0 min 64 W/m 29,0 km/h (5 Bft) 100,00 %
23.02.2022 12:16 10,6 C 11,7 C 8,9 C 74 % 1026,7 hPa 0,0 l/m 0 min 0 min 77 W/m 25,7 km/h (4 Bft) 98,00 %
23.02.2022 12:18 10,6 C 12,2 C 9,4 C 74 % 1026,7 hPa 0,0 l/m 0 min 0 min 94 W/m 22,5 km/h (4 Bft) 100,00 %
23.02.2022 12:20 10,6 C 12,8 C 10,0 C 74 % 1026,6 hPa 0,0 l/m 0 min 0 min 151 W/m 16,1 km/h (3 Bft) 100,00 %
23.02.2022 12:22 10,6 C 13,3 C 10,0 C 74 % 1026,5 hPa 0,0 l/m 0 min 0 min 121 W/m 22,5 km/h (4 Bft) 100,00 %
23.02.2022 12:24 10,6 C 12,8 C 9,4 C 73 % 1026,6 hPa 0,0 l/m 0 min 0 min 177 W/m 25,7 km/h (4 Bft) 100,00 %
23.02.2022 12:26 10,6 C 12,8 C 9,4 C 72 % 1026,6 hPa 0,0 l/m 0 min 0 min 191 W/m 22,5 km/h (4 Bft) 100,00 %
23.02.2022 12:28 10,5 C 12,2 C 9,4 C 71 % 1026,6 hPa 0,0 l/m 0 min 0 min 229 W/m 19,3 km/h (3 Bft) 100,00 %
23.02.2022 12:30 10,6 C 12,8 C 10,0 C 72 % 1026,6 hPa 0,0 l/m 2 min 0 min 392 W/m 16,1 km/h (3 Bft) 100,00 %
23.02.2022 12:32 10,6 C 12,8 C 10,0 C 73 % 1026,7 hPa 0,0 l/m 2 min 0 min 325 W/m 16,1 km/h (3 Bft) 100,00 %
23.02.2022 12:34 10,5 C 12,8 C 10,0 C 71 % 1026,7 hPa 0,0 l/m 2 min 0 min 311 W/m 25,7 km/h (4 Bft) 100,00 %
23.02.2022 12:36 10,6 C 12,8 C 10,0 C 72 % 1026,6 hPa 0,0 l/m 2 min 0 min 261 W/m 19,3 km/h (3 Bft) 100,00 %
23.02.2022 12:38 10,6 C 12,8 C 10,0 C 72 % 1026,6 hPa 0,0 l/m 2 min 0 min 383 W/m 32,2 km/h (5 Bft) 100,00 %
23.02.2022 12:40 10,6 C 12,8 C 9,4 C 71 % 1026,6 hPa 0,0 l/m 2 min 0 min 377 W/m 12,9 km/h (3 Bft) 100,00 %
23.02.2022 12:42 10,7 C 13,3 C 8,9 C 72 % 1026,5 hPa 0,0 l/m 2 min 0 min 421 W/m 19,3 km/h (3 Bft) 97,56 %
23.02.2022 12:44 10,7 C 13,9 C 8,9 C 71 % 1026,5 hPa 0,0 l/m 2 min 0 min 349 W/m 12,9 km/h (3 Bft) 100,00 %
23.02.2022 12:46 10,8 C 13,9 C 8,3 C 71 % 1026,5 hPa 0,0 l/m 2 min 0 min 422 W/m 19,3 km/h (3 Bft) 98,00 %
23.02.2022 12:48 10,8 C 13,9 C 8,3 C 70 % 1026,5 hPa 0,0 l/m 2 min 0 min 538 W/m 35,4 km/h (5 Bft) 97,14 %
23.02.2022 12:50 10,9 C 13,9 C 7,8 C 70 % 1026,4 hPa 0,0 l/m 2 min 0 min 540 W/m 22,5 km/h (4 Bft) 100,00 %
23.02.2022 12:52 10,9 C 14,4 C 7,8 C 69 % 1026,4 hPa 0,0 l/m 2 min 0 min 547 W/m 35,4 km/h (5 Bft) 97,96 %
23.02.2022 12:54 11,0 C 16,1 C 7,8 C 70 % 1026,3 hPa 0,0 l/m 2 min 0 min 545 W/m 16,1 km/h (3 Bft) 97,87 %
23.02.2022 12:56 11,1 C 17,2 C 7,8 C 70 % 1026,3 hPa 0,0 l/m 2 min 0 min 549 W/m 19,3 km/h (3 Bft) 97,87 %
23.02.2022 12:58 11,1 C 18,9 C 7,8 C 70 % 1026,3 hPa 0,0 l/m 2 min 0 min 548 W/m 19,3 km/h (3 Bft) 97,37 %
23.02.2022 13:00 11,2 C 19,4 C 7,8 C 69 % 1026,2 hPa 0,0 l/m 2 min 0 min 545 W/m 19,3 km/h (3 Bft) 97,87 %
23.02.2022 13:02 11,3 C 19,4 C 7,8 C 69 % 1026,2 hPa 0,0 l/m 2 min 0 min 547 W/m 22,5 km/h (4 Bft) 98,00 %
23.02.2022 13:04 11,3 C 19,4 C 7,8 C 69 % 1026,2 hPa 0,0 l/m 2 min 0 min 543 W/m 29,0 km/h (5 Bft) 97,87 %
23.02.2022 13:06 11,4 C 20,0 C 7,8 C 69 % 1026,1 hPa 0,0 l/m 2 min 0 min 546 W/m 22,5 km/h (4 Bft) 95,92 %
23.02.2022 13:08 11,5 C 20,0 C 8,3 C 68 % 1026,1 hPa 0,0 l/m 2 min 0 min 546 W/m 19,3 km/h (3 Bft) 95,74 %
23.02.2022 13:10 11,6 C 20,6 C 8,3 C 68 % 1026,2 hPa 0,0 l/m 2 min 0 min 545 W/m 22,5 km/h (4 Bft) 95,74 %
23.02.2022 13:12 11,7 C 21,1 C 8,3 C 68 % 1026,2 hPa 0,0 l/m 2 min 0 min 550 W/m 12,9 km/h (3 Bft) 95,74 %
23.02.2022 13:14 11,7 C 21,1 C 8,3 C 67 % 1026,1 hPa 0,0 l/m 2 min 0 min 546 W/m 22,5 km/h (4 Bft) 97,87 %
23.02.2022 13:16 11,7 C 20,0 C 7,8 C 66 % 1026,0 hPa 0,0 l/m 2 min 0 min 547 W/m 22,5 km/h (4 Bft) 98,08 %
23.02.2022 13:18 11,7 C 20,0 C 7,8 C 66 % 1026,0 hPa 0,0 l/m 2 min 0 min 543 W/m 22,5 km/h (4 Bft) 97,87 %
23.02.2022 13:20 11,8 C 20,0 C 8,3 C 66 % 1026,0 hPa 0,0 l/m 2 min 0 min 546 W/m 25,7 km/h (4 Bft) 95,74 %
23.02.2022 13:22 11,8 C 20,6 C 8,3 C 66 % 1025,9 hPa 0,0 l/m 2 min 0 min 543 W/m 19,3 km/h (3 Bft) 97,37 %
23.02.2022 13:24 11,9 C 20,6 C 8,3 C 66 % 1026,0 hPa 0,0 l/m 2 min 0 min 543 W/m 22,5 km/h (4 Bft) 98,00 %
23.02.2022 13:26 12,0 C 20,6 C 8,3 C 65 % 1025,9 hPa 0,0 l/m 2 min 0 min 543 W/m 22,5 km/h (4 Bft) 97,87 %
23.02.2022 13:28 12,0 C 20,6 C 8,3 C 66 % 1025,9 hPa 0,0 l/m 2 min 0 min 540 W/m 16,1 km/h (3 Bft) 100,00 %
23.02.2022 13:30 12,0 C 20,6 C 8,3 C 65 % 1025,8 hPa 0,0 l/m 2 min 0 min 539 W/m 25,7 km/h (4 Bft) 100,00 %
23.02.2022 13:32 12,1 C 20,0 C 8,3 C 64 % 1025,8 hPa 0,0 l/m 2 min 0 min 537 W/m 29,0 km/h (5 Bft) 100,00 %
23.02.2022 13:34 12,1 C 20,6 C 8,3 C 64 % 1025,8 hPa 0,0 l/m 2 min 0 min 537 W/m 29,0 km/h (5 Bft) 100,00 %
23.02.2022 13:36 12,2 C 21,1 C 8,3 C 65 % 1025,8 hPa 0,0 l/m 2 min 0 min 537 W/m 6,4 km/h (2 Bft) 97,87 %
23.02.2022 13:38 12,3 C 22,2 C 8,3 C 64 % 1025,7 hPa 0,0 l/m 2 min 0 min 536 W/m 19,3 km/h (3 Bft) 98,00 %
23.02.2022 13:40 12,3 C 21,1 C 8,3 C 64 % 1025,7 hPa 0,0 l/m 2 min 0 min 536 W/m 19,3 km/h (3 Bft) 100,00 %
23.02.2022 13:42 12,4 C 20,6 C 8,3 C 63 % 1025,7 hPa 0,0 l/m 2 min 0 min 530 W/m 19,3 km/h (3 Bft) 100,00 %
23.02.2022 13:44 12,4 C 19,4 C 8,3 C 62 % 1025,6 hPa 0,0 l/m 2 min 0 min 523 W/m 29,0 km/h (5 Bft) 100,00 %
23.02.2022 13:46 12,4 C 20,0 C 8,3 C 61 % 1025,7 hPa 0,0 l/m 2 min 0 min 526 W/m 12,9 km/h (3 Bft) 96,00 %
23.02.2022 13:48 12,4 C 21,7 C 8,3 C 63 % 1025,6 hPa 0,0 l/m 2 min 0 min 526 W/m 9,7 km/h (2 Bft) 97,87 %
23.02.2022 13:50 12,4 C 20,6 C 8,3 C 61 % 1025,7 hPa 0,0 l/m 2 min 0 min 524 W/m 16,1 km/h (3 Bft) 95,74 %
23.02.2022 13:52 12,4 C 20,6 C 8,3 C 61 % 1025,6 hPa 0,0 l/m 2 min 0 min 521 W/m 16,1 km/h (3 Bft) 95,65 %
23.02.2022 13:54 12,4 C 20,0 C 8,3 C 61 % 1025,5 hPa 0,0 l/m 2 min 0 min 517 W/m 16,1 km/h (3 Bft) 93,62 %
23.02.2022 13:56 12,3 C 19,4 C 8,3 C 61 % 1025,5 hPa 0,0 l/m 2 min 0 min 509 W/m 29,0 km/h (5 Bft) 93,62 %
23.02.2022 13:58 12,2 C 17,8 C 7,8 C 60 % 1025,5 hPa 0,0 l/m 2 min 0 min 500 W/m 29,0 km/h (5 Bft) 97,37 %
23.02.2022 14:00 12,1 C 17,2 C 7,8 C 61 % 1025,4 hPa 0,0 l/m 2 min 0 min 515 W/m 25,7 km/h (4 Bft) 98,21 %
23.02.2022 14:02 12,1 C 17,8 C 7,8 C 62 % 1025,4 hPa 0,0 l/m 2 min 0 min 514 W/m 16,1 km/h (3 Bft) 97,56 %
23.02.2022 14:04 12,1 C 17,2 C 7,8 C 62 % 1025,3 hPa 0,0 l/m 2 min 0 min 513 W/m 25,7 km/h (4 Bft) 97,96 %
23.02.2022 14:06 12,2 C 17,8 C 7,8 C 62 % 1025,3 hPa 0,0 l/m 2 min 0 min 517 W/m 12,9 km/h (3 Bft) 98,11 %
23.02.2022 14:08 12,2 C 17,2 C 7,8 C 61 % 1025,3 hPa 0,0 l/m 2 min 0 min 503 W/m 22,5 km/h (4 Bft) 97,87 %
23.02.2022 14:10 12,2 C 16,7 C 7,8 C 61 % 1025,3 hPa 0,0 l/m 2 min 0 min 472 W/m 22,5 km/h (4 Bft) 94,00 %
23.02.2022 14:12 12,1 C 16,7 C 7,8 C 61 % 1025,3 hPa 0,0 l/m 2 min 0 min 473 W/m 25,7 km/h (4 Bft) 97,37 %
23.02.2022 14:14 12,1 C 17,2 C 7,8 C 61 % 1025,2 hPa 0,0 l/m 2 min 0 min 463 W/m 22,5 km/h (4 Bft) 95,74 %
23.02.2022 14:16 12,1 C 17,2 C 7,8 C 62 % 1025,2 hPa 0,0 l/m 2 min 0 min 465 W/m 12,9 km/h (3 Bft) 92,31 %
23.02.2022 14:18 12,1 C 17,2 C 7,8 C 62 % 1025,1 hPa 0,0 l/m 2 min 0 min 496 W/m 12,9 km/h (3 Bft) 94,00 %
23.02.2022 14:20 12,1 C 16,7 C 7,8 C 62 % 1025,1 hPa 0,0 l/m 2 min 0 min 496 W/m 38,6 km/h (5 Bft) 95,74 %
23.02.2022 14:22 12,1 C 15,6 C 7,8 C 61 % 1025,0 hPa 0,0 l/m 2 min 0 min 493 W/m 38,6 km/h (5 Bft) 94,74 %
23.02.2022 14:24 12,1 C 15,6 C 7,8 C 62 % 1025,0 hPa 0,0 l/m 2 min 0 min 477 W/m 25,7 km/h (4 Bft) 96,00 %
23.02.2022 14:26 12,1 C 16,1 C 7,8 C 62 % 1024,9 hPa 0,0 l/m 2 min 0 min 469 W/m 16,1 km/h (3 Bft) 95,65 %
23.02.2022 14:28 12,1 C 16,1 C 7,8 C 62 % 1024,9 hPa 0,0 l/m 2 min 0 min 482 W/m 29,0 km/h (5 Bft) 93,62 %
23.02.2022 14:30 12,1 C 16,7 C 7,8 C 62 % 1024,8 hPa 0,0 l/m 2 min 0 min 480 W/m 12,9 km/h (3 Bft) 93,18 %
23.02.2022 14:32 12,1 C 17,2 C 7,8 C 62 % 1024,9 hPa 0,0 l/m 2 min 0 min 462 W/m 22,5 km/h (4 Bft) 95,74 %
23.02.2022 14:34 12,1 C 17,2 C 7,8 C 62 % 1024,8 hPa 0,0 l/m 2 min 0 min 450 W/m 25,7 km/h (4 Bft) 95,74 %
23.02.2022 14:36 12,1 C 17,2 C 7,8 C 62 % 1024,8 hPa 0,0 l/m 2 min 0 min 470 W/m 29,0 km/h (5 Bft) 98,00 %
23.02.2022 14:38 12,2 C 17,2 C 7,8 C 61 % 1024,7 hPa 0,0 l/m 2 min 0 min 465 W/m 22,5 km/h (4 Bft) 97,83 %
23.02.2022 14:40 12,2 C 17,8 C 7,8 C 62 % 1024,8 hPa 0,0 l/m 2 min 0 min 462 W/m 22,5 km/h (4 Bft) 96,00 %
23.02.2022 14:42 12,2 C 17,8 C 7,8 C 62 % 1024,7 hPa 0,0 l/m 2 min 0 min 455 W/m 16,1 km/h (3 Bft) 97,14 %
23.02.2022 14:44 12,2 C 18,3 C 7,8 C 62 % 1024,7 hPa 0,0 l/m 2 min 0 min 449 W/m 22,5 km/h (4 Bft) 96,43 %
23.02.2022 14:46 12,2 C 18,3 C 7,8 C 62 % 1024,7 hPa 0,0 l/m 2 min 0 min 448 W/m 16,1 km/h (3 Bft) 96,00 %
23.02.2022 14:48 12,2 C 17,2 C 7,8 C 62 % 1024,6 hPa 0,0 l/m 2 min 0 min 452 W/m 19,3 km/h (3 Bft) 100,00 %
23.02.2022 14:50 12,1 C 16,7 C 7,8 C 63 % 1024,6 hPa 0,0 l/m 2 min 0 min 448 W/m 19,3 km/h (3 Bft) 96,15 %
23.02.2022 14:52 12,0 C 16,1 C 7,8 C 62 % 1024,5 hPa 0,0 l/m 2 min 0 min 442 W/m 16,1 km/h (3 Bft) 97,87 %
23.02.2022 14:54 12,0 C 16,1 C 7,8 C 63 % 1024,6 hPa 0,0 l/m 2 min 0 min 441 W/m 19,3 km/h (3 Bft) 97,87 %
23.02.2022 14:56 12,1 C 16,1 C 7,8 C 63 % 1024,5 hPa 0,0 l/m 2 min 0 min 440 W/m 29,0 km/h (5 Bft) 95,74 %
23.02.2022 14:58 12,0 C 15,6 C 7,8 C 62 % 1024,5 hPa 0,0 l/m 2 min 0 min 431 W/m 22,5 km/h (4 Bft) 97,73 %
23.02.2022 15:00 12,0 C 15,0 C 7,8 C 63 % 1024,4 hPa 0,0 l/m 2 min 0 min 436 W/m 16,1 km/h (3 Bft) 97,87 %
23.02.2022 15:02 12,0 C 15,0 C 7,8 C 64 % 1024,4 hPa 0,0 l/m 2 min 0 min 303 W/m 19,3 km/h (3 Bft) 95,92 %
23.02.2022 15:04 12,0 C 15,0 C 7,8 C 64 % 1024,5 hPa 0,0 l/m 2 min 0 min 341 W/m 32,2 km/h (5 Bft) 98,00 %
23.02.2022 15:06 12,0 C 13,9 C 7,8 C 63 % 1024,4 hPa 0,0 l/m 2 min 0 min 320 W/m 19,3 km/h (3 Bft) 95,74 %
23.02.2022 15:08 12,0 C 13,3 C 7,8 C 63 % 1024,4 hPa 0,0 l/m 0 min 0 min 129 W/m 22,5 km/h (4 Bft) 97,73 %
23.02.2022 15:10 11,9 C 14,4 C 7,8 C 64 % 1024,4 hPa 0,0 l/m 2 min 0 min 196 W/m 29,0 km/h (5 Bft) 97,87 %
23.02.2022 15:12 11,9 C 14,4 C 7,8 C 64 % 1024,3 hPa 0,0 l/m 2 min 0 min 472 W/m 19,3 km/h (3 Bft) 97,96 %
23.02.2022 15:14 12,0 C 15,0 C 7,8 C 64 % 1024,3 hPa 0,0 l/m 2 min 0 min 468 W/m 38,6 km/h (5 Bft) 95,74 %
23.02.2022 15:16 12,0 C 15,0 C 7,8 C 64 % 1024,3 hPa 0,0 l/m 2 min 0 min 434 W/m 25,7 km/h (4 Bft) 96,23 %
23.02.2022 15:18 12,1 C 15,6 C 7,8 C 64 % 1024,3 hPa 0,0 l/m 2 min 0 min 417 W/m 19,3 km/h (3 Bft) 97,37 %
23.02.2022 15:20 11,9 C 15,0 C 7,8 C 64 % 1024,3 hPa 0,0 l/m 2 min 0 min 403 W/m 32,2 km/h (5 Bft) 98,00 %
23.02.2022 15:22 11,8 C 12,8 C 7,2 C 64 % 1024,3 hPa 0,0 l/m 2 min 0 min 176 W/m 25,7 km/h (4 Bft) 97,87 %
23.02.2022 15:24 11,7 C 13,3 C 7,2 C 65 % 1024,3 hPa 0,0 l/m 0 min 0 min 88 W/m 22,5 km/h (4 Bft) 48,78 %
23.02.2022 15:26 11,7 C 12,8 C 7,2 C 66 % 1024,2 hPa 0,0 l/m 0 min 0 min 110 W/m 22,5 km/h (4 Bft) 100,00 %
23.02.2022 15:28 11,6 C 14,4 C 7,2 C 66 % 1024,2 hPa 0,0 l/m 2 min 0 min 203 W/m 16,1 km/h (3 Bft) 100,00 %
23.02.2022 15:30 11,6 C 13,9 C 7,2 C 67 % 1024,1 hPa 0,0 l/m 2 min 0 min 420 W/m 16,1 km/h (3 Bft) 97,73 %
23.02.2022 15:32 11,6 C 14,4 C 7,2 C 67 % 1024,1 hPa 0,0 l/m 2 min 0 min 391 W/m 19,3 km/h (3 Bft) 97,87 %
23.02.2022 15:34 11,6 C 12,8 C 7,2 C 67 % 1024,0 hPa 0,0 l/m 2 min 0 min 285 W/m 29,0 km/h (5 Bft) 100,00 %
23.02.2022 15:36 11,6 C 12,2 C 7,2 C 66 % 1024,0 hPa 0,0 l/m 0 min 0 min 80 W/m 22,5 km/h (4 Bft) 97,83 %
23.02.2022 15:38 11,4 C 11,7 C 7,2 C 66 % 1024,1 hPa 0,0 l/m 0 min 0 min 90 W/m 25,7 km/h (4 Bft) 97,87 %
23.02.2022 15:40 11,3 C 11,1 C 7,2 C 66 % 1024,1 hPa 0,0 l/m 0 min 0 min 95 W/m 25,7 km/h (4 Bft) 97,87 %
23.02.2022 15:42 11,2 C 11,7 C 7,2 C 67 % 1024,0 hPa 0,0 l/m 0 min 0 min 141 W/m 19,3 km/h (3 Bft) 97,73 %
23.02.2022 15:44 11,2 C 13,3 C 7,2 C 67 % 1023,9 hPa 0,0 l/m 2 min 0 min 198 W/m 16,1 km/h (3 Bft) 98,00 %
23.02.2022 15:46 11,3 C 13,9 C 7,2 C 67 % 1023,9 hPa 0,0 l/m 2 min 0 min 371 W/m 19,3 km/h (3 Bft) 98,08 %
23.02.2022 15:48 11,3 C 12,8 C 7,2 C 68 % 1023,9 hPa 0,0 l/m 2 min 0 min 271 W/m 19,3 km/h (3 Bft) 97,37 %
23.02.2022 15:50 11,3 C 12,2 C 7,2 C 67 % 1023,8 hPa 0,0 l/m 0 min 0 min 129 W/m 19,3 km/h (3 Bft) 98,00 %
23.02.2022 15:52 11,3 C 12,8 C 7,2 C 68 % 1023,8 hPa 0,0 l/m 2 min 0 min 176 W/m 12,9 km/h (3 Bft) 97,87 %
23.02.2022 15:54 11,3 C 13,9 C 7,2 C 68 % 1023,8 hPa 0,0 l/m 2 min 0 min 328 W/m 12,9 km/h (3 Bft) 97,73 %
23.02.2022 15:56 11,3 C 13,9 C 7,2 C 67 % 1023,7 hPa 0,0 l/m 2 min 0 min 314 W/m 19,3 km/h (3 Bft) 98,00 %
23.02.2022 15:58 11,3 C 13,9 C 7,2 C 66 % 1023,7 hPa 0,0 l/m 2 min 0 min 317 W/m 25,7 km/h (4 Bft) 97,96 %
23.02.2022 16:00 11,3 C 12,8 C 7,2 C 66 % 1023,6 hPa 0,0 l/m 2 min 0 min 303 W/m 22,5 km/h (4 Bft) 93,62 %
23.02.2022 16:02 11,4 C 12,2 C 7,2 C 66 % 1023,6 hPa 0,0 l/m 2 min 0 min 274 W/m 25,7 km/h (4 Bft) 97,37 %
23.02.2022 16:04 11,4 C 11,7 C 7,2 C 65 % 1023,6 hPa 0,0 l/m 2 min 0 min 267 W/m 22,5 km/h (4 Bft) 98,00 %
23.02.2022 16:06 11,4 C 11,7 C 7,2 C 65 % 1023,5 hPa 0,0 l/m 2 min 0 min 274 W/m 22,5 km/h (4 Bft) 96,23 %
23.02.2022 16:08 11,5 C 11,7 C 7,2 C 66 % 1023,5 hPa 0,0 l/m 2 min 0 min 270 W/m 19,3 km/h (3 Bft) 97,87 %
23.02.2022 16:10 11,5 C 11,1 C 7,2 C 66 % 1023,5 hPa 0,0 l/m 2 min 0 min 265 W/m 16,1 km/h (3 Bft) 95,65 %
23.02.2022 16:12 11,5 C 11,1 C 7,2 C 66 % 1023,4 hPa 0,0 l/m 2 min 0 min 249 W/m 16,1 km/h (3 Bft) 97,87 %
23.02.2022 16:14 11,5 C 11,1 C 7,2 C 66 % 1023,5 hPa 0,0 l/m 2 min 0 min 242 W/m 19,3 km/h (3 Bft) 98,00 %
23.02.2022 16:16 11,4 C 11,1 C 7,2 C 64 % 1023,4 hPa 0,0 l/m 2 min 0 min 202 W/m 32,2 km/h (5 Bft) 97,37 %
23.02.2022 16:18 11,4 C 10,6 C 7,2 C 64 % 1023,3 hPa 0,0 l/m 2 min 0 min 224 W/m 22,5 km/h (4 Bft) 93,62 %
23.02.2022 16:20 11,4 C 10,6 C 7,2 C 64 % 1023,3 hPa 0,0 l/m 2 min 0 min 216 W/m 19,3 km/h (3 Bft) 95,74 %
23.02.2022 16:22 11,3 C 10,6 C 6,7 C 65 % 1023,3 hPa 0,0 l/m 2 min 0 min 213 W/m 19,3 km/h (3 Bft) 98,18 %
23.02.2022 16:24 11,3 C 10,6 C 6,7 C 64 % 1023,3 hPa 0,0 l/m 2 min 0 min 200 W/m 22,5 km/h (4 Bft) 94,74 %
23.02.2022 16:26 11,3 C 10,6 C 6,7 C 65 % 1023,2 hPa 0,0 l/m 2 min 0 min 136 W/m 19,3 km/h (3 Bft) 97,87 %
23.02.2022 16:28 11,3 C 10,6 C 6,7 C 65 % 1023,2 hPa 0,0 l/m 2 min 0 min 111 W/m 12,9 km/h (3 Bft) 97,87 %
23.02.2022 16:30 11,3 C 10,6 C 6,7 C 65 % 1023,2 hPa 0,0 l/m 2 min 0 min 153 W/m 22,5 km/h (4 Bft) 95,74 %
23.02.2022 16:32 11,2 C 10,6 C 6,7 C 64 % 1023,1 hPa 0,0 l/m 2 min 0 min 147 W/m 35,4 km/h (5 Bft) 97,87 %
23.02.2022 16:34 11,2 C 10,6 C 6,7 C 65 % 1023,1 hPa 0,0 l/m 0 min 0 min 76 W/m 29,0 km/h (5 Bft) 97,83 %
23.02.2022 16:36 11,2 C 10,6 C 6,7 C 65 % 1023,0 hPa 0,0 l/m 0 min 0 min 57 W/m 22,5 km/h (4 Bft) 98,00 %
23.02.2022 16:38 11,2 C 10,6 C 6,7 C 65 % 1023,1 hPa 0,0 l/m 0 min 0 min 52 W/m 19,3 km/h (3 Bft) 100,00 %
23.02.2022 16:40 11,2 C 10,6 C 6,7 C 65 % 1023,1 hPa 0,0 l/m 0 min 0 min 47 W/m 19,3 km/h (3 Bft) 97,87 %
23.02.2022 16:42 11,2 C 10,6 C 6,7 C 65 % 1023,0 hPa 0,0 l/m 0 min 0 min 44 W/m 19,3 km/h (3 Bft) 97,87 %
23.02.2022 16:44 11,1 C 10,6 C 6,7 C 66 % 1023,0 hPa 0,0 l/m 0 min 0 min 40 W/m 16,1 km/h (3 Bft) 95,74 %
23.02.2022 16:46 11,1 C 10,6 C 6,7 C 65 % 1023,0 hPa 0,0 l/m 0 min 0 min 35 W/m 19,3 km/h (3 Bft) 96,15 %
23.02.2022 16:48 11,1 C 10,6 C 6,7 C 65 % 1022,9 hPa 0,0 l/m 0 min 0 min 35 W/m 22,5 km/h (4 Bft) 97,87 %
23.02.2022 16:50 11,1 C 10,6 C 6,7 C 65 % 1022,9 hPa 0,0 l/m 0 min 0 min 37 W/m 16,1 km/h (3 Bft) 97,37 %
23.02.2022 16:52 11,1 C 10,6 C 6,7 C 65 % 1022,8 hPa 0,0 l/m 0 min 0 min 38 W/m 22,5 km/h (4 Bft) 98,00 %
23.02.2022 16:54 11,1 C 10,6 C 6,7 C 65 % 1022,8 hPa 0,0 l/m 0 min 0 min 41 W/m 16,1 km/h (3 Bft) 97,87 %
23.02.2022 16:56 11,0 C 10,6 C 6,7 C 65 % 1022,8 hPa 0,0 l/m 0 min 0 min 44 W/m 32,2 km/h (5 Bft) 97,87 %
23.02.2022 16:58 11,0 C 10,6 C 6,7 C 65 % 1022,7 hPa 0,0 l/m 0 min 0 min 48 W/m 22,5 km/h (4 Bft) 100,00 %
23.02.2022 17:00 11,0 C 10,6 C 6,7 C 65 % 1022,7 hPa 0,0 l/m 0 min 0 min 48 W/m 25,7 km/h (4 Bft) 97,14 %
23.02.2022 17:02 11,0 C 10,6 C 6,7 C 65 % 1022,6 hPa 0,0 l/m 0 min 0 min 48 W/m 22,5 km/h (4 Bft) 98,21 %
23.02.2022 17:04 11,0 C 10,6 C 6,7 C 65 % 1022,7 hPa 0,0 l/m 0 min 0 min 49 W/m 16,1 km/h (3 Bft) 100,00 %
23.02.2022 17:06 10,9 C 10,6 C 6,7 C 65 % 1022,6 hPa 0,0 l/m 0 min 0 min 48 W/m 22,5 km/h (4 Bft) 100,00 %
23.02.2022 17:08 10,9 C 10,6 C 6,7 C 65 % 1022,6 hPa 0,0 l/m 0 min 0 min 46 W/m 22,5 km/h (4 Bft) 100,00 %
23.02.2022 17:10 10,9 C 10,6 C 6,7 C 65 % 1022,5 hPa 0,0 l/m 0 min 0 min 46 W/m 22,5 km/h (4 Bft) 97,87 %
23.02.2022 17:12 10,9 C 10,0 C 6,7 C 65 % 1022,5 hPa 0,0 l/m 0 min 0 min 41 W/m 12,9 km/h (3 Bft) 100,00 %
23.02.2022 17:14 10,9 C 10,0 C 6,7 C 65 % 1022,4 hPa 0,0 l/m 0 min 0 min 39 W/m 16,1 km/h (3 Bft) 100,00 %
23.02.2022 17:16 10,8 C 10,0 C 6,1 C 65 % 1022,4 hPa 0,0 l/m 0 min 0 min 34 W/m 29,0 km/h (5 Bft) 100,00 %
23.02.2022 17:18 10,8 C 10,0 C 6,1 C 65 % 1022,3 hPa 0,0 l/m 0 min 0 min 32 W/m 19,3 km/h (3 Bft) 100,00 %
23.02.2022 17:20 10,8 C 10,0 C 6,1 C 66 % 1022,3 hPa 0,0 l/m 0 min 0 min 32 W/m 12,9 km/h (3 Bft) 97,44 %
23.02.2022 17:22 10,8 C 10,0 C 6,1 C 66 % 1022,2 hPa 0,0 l/m 0 min 0 min 29 W/m 12,9 km/h (3 Bft) 100,00 %
23.02.2022 17:24 10,7 C 10,0 C 6,1 C 66 % 1022,2 hPa 0,0 l/m 0 min 0 min 26 W/m 12,9 km/h (3 Bft) 95,74 %
23.02.2022 17:26 10,7 C 10,0 C 6,1 C 66 % 1022,1 hPa 0,0 l/m 0 min 0 min 25 W/m 9,7 km/h (2 Bft) 98,21 %
23.02.2022 17:28 10,7 C 10,0 C 6,1 C 66 % 1022,2 hPa 0,0 l/m 0 min 0 min 23 W/m 6,4 km/h (2 Bft) 95,74 %
23.02.2022 17:30 10,6 C 9,4 C 6,1 C 67 % 1022,2 hPa 0,0 l/m 0 min 0 min 22 W/m 12,9 km/h (3 Bft) 97,37 %
23.02.2022 17:32 10,6 C 9,4 C 5,6 C 67 % 1022,2 hPa 0,0 l/m 0 min 0 min 21 W/m 19,3 km/h (3 Bft) 95,92 %
23.02.2022 17:34 10,6 C 9,4 C 5,6 C 67 % 1022,2 hPa 0,0 l/m 0 min 0 min 21 W/m 16,1 km/h (3 Bft) 97,87 %
23.02.2022 17:36 10,5 C 9,4 C 5,6 C 67 % 1022,2 hPa 0,0 l/m 0 min 0 min 21 W/m 9,7 km/h (2 Bft) 95,74 %
23.02.2022 17:38 10,4 C 9,4 C 5,6 C 68 % 1022,1 hPa 0,0 l/m 0 min 0 min 21 W/m 12,9 km/h (3 Bft) 97,87 %
23.02.2022 17:40 10,4 C 9,4 C 5,6 C 68 % 1022,1 hPa 0,0 l/m 0 min 0 min 19 W/m 6,4 km/h (2 Bft) 97,87 %
23.02.2022 17:42 10,4 C 9,4 C 5,6 C 68 % 1022,2 hPa 0,0 l/m 0 min 0 min 19 W/m 12,9 km/h (3 Bft) 97,87 %
23.02.2022 17:44 10,3 C 9,4 C 5,6 C 68 % 1022,2 hPa 0,0 l/m 0 min 0 min 19 W/m 9,7 km/h (2 Bft) 95,65 %
23.02.2022 17:46 10,3 C 9,4 C 5,6 C 68 % 1022,2 hPa 0,0 l/m 0 min 0 min 18 W/m 12,9 km/h (3 Bft) 97,87 %
23.02.2022 17:48 10,3 C 9,4 C 5,6 C 68 % 1022,2 hPa 0,0 l/m 0 min 0 min 16 W/m 9,7 km/h (2 Bft) 97,87 %
23.02.2022 17:50 10,2 C 9,4 C 5,6 C 69 % 1022,1 hPa 0,0 l/m 0 min 0 min 13 W/m 9,7 km/h (2 Bft) 97,87 %
23.02.2022 17:52 10,2 C 8,9 C 5,6 C 69 % 1022,1 hPa 0,0 l/m 0 min 0 min 11 W/m 6,4 km/h (2 Bft) 97,87 %
23.02.2022 17:54 10,2 C 8,9 C 5,6 C 69 % 1022,0 hPa 0,0 l/m 0 min 0 min 10 W/m 6,4 km/h (2 Bft) 95,74 %
23.02.2022 17:56 10,1 C 8,9 C 5,0 C 69 % 1022,1 hPa 0,0 l/m 0 min 0 min 7 W/m 3,2 km/h (1 Bft) 95,65 %
23.02.2022 17:58 10,1 C 8,9 C 5,0 C 69 % 1022,0 hPa 0,0 l/m 0 min 0 min 7 W/m 3,2 km/h (1 Bft) 93,62 %
23.02.2022 18:00 10,1 C 8,9 C 5,0 C 69 % 1022,0 hPa 0,0 l/m 0 min 0 min 5 W/m 3,2 km/h (1 Bft) 46,15 %
23.02.2022 18:02 10,1 C 8,9 C 5,0 C 70 % 1022,0 hPa 0,0 l/m 0 min 0 min 3 W/m 3,2 km/h (1 Bft) 97,87 %
23.02.2022 18:04 10,0 C 8,9 C 5,0 C 70 % 1021,9 hPa 0,0 l/m 0 min 0 min 0 W/m 6,4 km/h (2 Bft) 97,87 %
23.02.2022 18:08 9,9 C 8,3 C 5,0 C 70 % 1021,9 hPa 0,0 l/m 0 min 0 min 0 W/m 6,4 km/h (2 Bft) 97,85 %
23.02.2022 18:10 9,9 C 8,3 C 5,0 C 70 % 1021,9 hPa 0,0 l/m 0 min 0 min 0 W/m 3,2 km/h (1 Bft) 97,87 %
23.02.2022 18:12 9,8 C 8,3 C 5,0 C 70 % 1021,9 hPa 0,0 l/m 0 min 0 min 0 W/m 3,2 km/h (1 Bft) 97,87 %
23.02.2022 18:14 9,8 C 8,3 C 4,4 C 70 % 1021,9 hPa 0,0 l/m 0 min 0 min 0 W/m 6,4 km/h (2 Bft) 97,87 %
23.02.2022 18:16 9,8 C 8,3 C 4,4 C 71 % 1021,9 hPa 0,0 l/m 0 min 0 min 0 W/m 6,4 km/h (2 Bft) 97,87 %
23.02.2022 18:18 9,7 C 8,3 C 4,4 C 71 % 1021,8 hPa 0,0 l/m 0 min 0 min 0 W/m 3,2 km/h (1 Bft) 97,83 %
23.02.2022 18:20 9,7 C 8,3 C 4,4 C 71 % 1021,9 hPa 0,0 l/m 0 min 0 min 0 W/m 3,2 km/h (1 Bft) 95,74 %
23.02.2022 18:22 9,6 C 7,8 C 4,4 C 71 % 1021,8 hPa 0,0 l/m 0 min 0 min 0 W/m 3,2 km/h (1 Bft) 95,74 %
23.02.2022 18:24 9,6 C 7,8 C 4,4 C 71 % 1021,8 hPa 0,0 l/m 0 min 0 min 0 W/m 0,0 km/h (0 Bft) 97,87 %
23.02.2022 18:26 9,6 C 7,8 C 3,9 C 72 % 1021,9 hPa 0,0 l/m 0 min 0 min 0 W/m 3,2 km/h (1 Bft) 97,87 %
23.02.2022 18:28 9,5 C 7,8 C 3,9 C 72 % 1021,8 hPa 0,0 l/m 0 min 0 min 0 W/m 3,2 km/h (1 Bft) 95,74 %
23.02.2022 18:30 9,4 C 7,8 C 3,9 C 72 % 1021,8 hPa 0,0 l/m 0 min 0 min 0 W/m 3,2 km/h (1 Bft) 97,83 %
23.02.2022 18:32 9,4 C 7,8 C 3,9 C 72 % 1021,9 hPa 0,0 l/m 0 min 0 min 0 W/m 3,2 km/h (1 Bft) 100,00 %
23.02.2022 18:34 9,3 C 7,8 C 3,9 C 72 % 1021,9 hPa 0,0 l/m 0 min 0 min 0 W/m 3,2 km/h (1 Bft) 97,87 %
23.02.2022 18:36 9,3 C 7,8 C 3,3 C 73 % 1021,8 hPa 0,0 l/m 0 min 0 min 0 W/m 6,4 km/h (2 Bft) 100,00 %
23.02.2022 18:38 9,2 C 7,8 C 3,3 C 73 % 1021,9 hPa 0,0 l/m 0 min 0 min 0 W/m 6,4 km/h (2 Bft) 100,00 %
23.02.2022 18:40 9,2 C 7,8 C 3,9 C 73 % 1021,9 hPa 0,0 l/m 0 min 0 min 0 W/m 6,4 km/h (2 Bft) 100,00 %
23.02.2022 18:42 9,1 C 7,8 C 3,9 C 73 % 1021,9 hPa 0,0 l/m 0 min 0 min 0 W/m 6,4 km/h (2 Bft) 100,00 %
23.02.2022 18:44 9,1 C 7,8 C 3,9 C 74 % 1021,9 hPa 0,0 l/m 0 min 0 min 0 W/m 3,2 km/h (1 Bft) 100,00 %
23.02.2022 18:46 9,1 C 7,8 C 3,9 C 74 % 1021,9 hPa 0,0 l/m 0 min 0 min 0 W/m 9,7 km/h (2 Bft) 97,87 %
23.02.2022 18:48 9,0 C 7,8 C 3,9 C 74 % 1021,9 hPa 0,0 l/m 0 min 0 min 0 W/m 6,4 km/h (2 Bft) 100,00 %
23.02.2022 18:50 8,9 C 7,8 C 3,9 C 74 % 1021,8 hPa 0,0 l/m 0 min 0 min 0 W/m 9,7 km/h (2 Bft) 100,00 %
23.02.2022 18:52 8,9 C 7,8 C 4,4 C 74 % 1021,8 hPa 0,0 l/m 0 min 0 min 0 W/m 9,7 km/h (2 Bft) 100,00 %
23.02.2022 18:54 8,9 C 7,8 C 4,4 C 74 % 1021,8 hPa 0,0 l/m 0 min 0 min 0 W/m 22,5 km/h (4 Bft) 100,00 %
23.02.2022 18:56 8,9 C 7,8 C 4,4 C 74 % 1021,8 hPa 0,0 l/m 0 min 0 min 0 W/m 22,5 km/h (4 Bft) 100,00 %
23.02.2022 18:58 8,9 C 7,8 C 4,4 C 74 % 1021,8 hPa 0,0 l/m 0 min 0 min 0 W/m 16,1 km/h (3 Bft) 100,00 %
23.02.2022 19:00 8,9 C 7,8 C 4,4 C 74 % 1021,8 hPa 0,0 l/m 0 min 0 min 0 W/m 9,7 km/h (2 Bft) 100,00 %
23.02.2022 19:02 8,9 C 7,8 C 4,4 C 74 % 1021,8 hPa 0,0 l/m 0 min 0 min 0 W/m 12,9 km/h (3 Bft) 100,00 %
23.02.2022 19:04 8,9 C 7,8 C 4,4 C 73 % 1021,7 hPa 0,0 l/m 0 min 0 min 0 W/m 12,9 km/h (3 Bft) 100,00 %
23.02.2022 19:06 8,9 C 7,8 C 4,4 C 73 % 1021,7 hPa 0,0 l/m 0 min 0 min 0 W/m 9,7 km/h (2 Bft) 97,87 %
23.02.2022 19:08 8,9 C 7,8 C 4,4 C 73 % 1021,7 hPa 0,0 l/m 0 min 0 min 0 W/m 16,1 km/h (3 Bft) 97,87 %
23.02.2022 19:10 8,9 C 7,8 C 4,4 C 73 % 1021,6 hPa 0,0 l/m 0 min 0 min 0 W/m 6,4 km/h (2 Bft) 97,87 %
23.02.2022 19:12 8,9 C 7,8 C 4,4 C 73 % 1021,6 hPa 0,0 l/m 0 min 0 min 0 W/m 9,7 km/h (2 Bft) 95,74 %
23.02.2022 19:14 8,9 C 7,8 C 4,4 C 73 % 1021,6 hPa 0,0 l/m 0 min 0 min 0 W/m 6,4 km/h (2 Bft) 95,74 %
23.02.2022 19:16 8,8 C 7,8 C 4,4 C 73 % 1021,6 hPa 0,0 l/m 0 min 0 min 0 W/m 6,4 km/h (2 Bft) 97,83 %
23.02.2022 19:18 8,8 C 7,8 C 4,4 C 73 % 1021,6 hPa 0,0 l/m 0 min 0 min 0 W/m 6,4 km/h (2 Bft) 95,74 %
23.02.2022 19:20 8,8 C 7,8 C 4,4 C 73 % 1021,5 hPa 0,0 l/m 0 min 0 min 0 W/m 3,2 km/h (1 Bft) 97,87 %
23.02.2022 19:22 8,8 C 7,8 C 3,9 C 73 % 1021,5 hPa 0,0 l/m 0 min 0 min 0 W/m 3,2 km/h (1 Bft) 95,74 %
23.02.2022 19:24 8,8 C 7,2 C 3,9 C 73 % 1021,5 hPa 0,0 l/m 0 min 0 min 0 W/m 6,4 km/h (2 Bft) 95,74 %
23.02.2022 19:26 8,8 C 7,2 C 3,9 C 73 % 1021,5 hPa 0,0 l/m 0 min 0 min 0 W/m 6,4 km/h (2 Bft) 95,74 %
23.02.2022 19:28 8,7 C 7,2 C 3,9 C 74 % 1021,5 hPa 0,0 l/m 0 min 0 min 0 W/m 6,4 km/h (2 Bft) 95,65 %
23.02.2022 19:30 8,7 C 7,2 C 3,9 C 74 % 1021,5 hPa 0,0 l/m 0 min 0 min 0 W/m 6,4 km/h (2 Bft) 95,74 %
23.02.2022 19:32 8,7 C 7,2 C 3,9 C 74 % 1021,5 hPa 0,0 l/m 0 min 0 min 0 W/m 3,2 km/h (1 Bft) 97,87 %
23.02.2022 19:34 8,6 C 7,2 C 3,9 C 74 % 1021,4 hPa 0,0 l/m 0 min 0 min 0 W/m 6,4 km/h (2 Bft) 95,74 %
23.02.2022 19:36 8,6 C 7,2 C 3,9 C 74 % 1021,4 hPa 0,0 l/m 0 min 0 min 0 W/m 6,4 km/h (2 Bft) 95,74 %
23.02.2022 19:38 8,6 C 7,2 C 3,3 C 75 % 1021,4 hPa 0,0 l/m 0 min 0 min 0 W/m 6,4 km/h (2 Bft) 95,74 %
23.02.2022 19:40 8,5 C 7,2 C 3,3 C 75 % 1021,4 hPa 0,0 l/m 0 min 0 min 0 W/m 6,4 km/h (2 Bft) 91,30 %
23.02.2022 19:42 8,4 C 7,2 C 3,3 C 75 % 1021,4 hPa 0,0 l/m 0 min 0 min 0 W/m 6,4 km/h (2 Bft) 95,74 %
23.02.2022 19:44 8,3 C 7,2 C 3,3 C 75 % 1021,4 hPa 0,0 l/m 0 min 0 min 0 W/m 6,4 km/h (2 Bft) 95,74 %
23.02.2022 19:46 8,3 C 7,2 C 3,3 C 75 % 1021,4 hPa 0,0 l/m 0 min 0 min 0 W/m 12,9 km/h (3 Bft) 94,00 %
23.02.2022 19:48 8,3 C 7,2 C 3,3 C 75 % 1021,3 hPa 0,0 l/m 0 min 0 min 0 W/m 6,4 km/h (2 Bft) 97,14 %
23.02.2022 19:50 8,2 C 7,2 C 3,9 C 75 % 1021,3 hPa 0,0 l/m 0 min 0 min 0 W/m 9,7 km/h (2 Bft) 92,86 %
23.02.2022 19:52 8,2 C 7,2 C 3,9 C 75 % 1021,3 hPa 0,0 l/m 0 min 0 min 0 W/m 9,7 km/h (2 Bft) 91,30 %
23.02.2022 19:54 8,2 C 7,2 C 3,9 C 75 % 1021,3 hPa 0,0 l/m 0 min 0 min 0 W/m 16,1 km/h (3 Bft) 93,62 %
23.02.2022 19:56 8,1 C 7,2 C 3,9 C 75 % 1021,3 hPa 0,0 l/m 0 min 0 min 0 W/m 6,4 km/h (2 Bft) 90,00 %
23.02.2022 19:58 8,1 C 7,2 C 3,9 C 75 % 1021,3 hPa 0,0 l/m 0 min 0 min 0 W/m 6,4 km/h (2 Bft) 97,37 %
23.02.2022 20:00 8,1 C 7,2 C 3,9 C 75 % 1021,3 hPa 0,0 l/m 0 min 0 min 0 W/m 6,4 km/h (2 Bft) 89,36 %
23.02.2022 20:02 8,1 C 7,2 C 3,9 C 75 % 1021,3 hPa 0,0 l/m 0 min 0 min 0 W/m 12,9 km/h (3 Bft) 90,91 %
23.02.2022 20:04 8,1 C 7,2 C 3,9 C 74 % 1021,3 hPa 0,0 l/m 0 min 0 min 0 W/m 12,9 km/h (3 Bft) 95,12 %
23.02.2022 20:06 8,2 C 7,8 C 3,9 C 74 % 1021,3 hPa 0,0 l/m 0 min 0 min 0 W/m 12,9 km/h (3 Bft) 98,21 %
23.02.2022 20:08 8,2 C 7,8 C 3,9 C 74 % 1021,3 hPa 0,0 l/m 0 min 0 min 0 W/m 9,7 km/h (2 Bft) 97,87 %
23.02.2022 20:10 8,2 C 7,8 C 3,9 C 74 % 1021,3 hPa 0,0 l/m 0 min 0 min 0 W/m 6,4 km/h (2 Bft) 97,87 %
23.02.2022 20:12 8,2 C 7,8 C 3,9 C 74 % 1021,2 hPa 0,0 l/m 0 min 0 min 0 W/m 6,4 km/h (2 Bft) 97,37 %
23.02.2022 20:14 8,2 C 7,8 C 4,4 C 74 % 1021,2 hPa 0,0 l/m 0 min 0 min 0 W/m 6,4 km/h (2 Bft) 97,87 %
23.02.2022 20:16 8,3 C 7,8 C 4,4 C 74 % 1021,2 hPa 0,0 l/m 0 min 0 min 0 W/m 3,2 km/h (1 Bft) 95,65 %
23.02.2022 20:18 8,3 C 7,8 C 4,4 C 74 % 1021,2 hPa 0,0 l/m 0 min 0 min 0 W/m 6,4 km/h (2 Bft) 100,00 %
23.02.2022 20:20 8,3 C 7,8 C 4,4 C 74 % 1021,1 hPa 0,0 l/m 0 min 0 min 0 W/m 6,4 km/h (2 Bft) 100,00 %
23.02.2022 20:22 8,3 C 7,8 C 4,4 C 73 % 1021,2 hPa 0,0 l/m 0 min 0 min 0 W/m 12,9 km/h (3 Bft) 100,00 %
23.02.2022 20:24 8,4 C 7,8 C 4,4 C 73 % 1021,1 hPa 0,0 l/m 0 min 0 min 0 W/m 6,4 km/h (2 Bft) 98,00 %
23.02.2022 20:26 8,4 C 7,8 C 4,4 C 73 % 1021,1 hPa 0,0 l/m 0 min 0 min 0 W/m 6,4 km/h (2 Bft) 100,00 %
23.02.2022 20:28 8,4 C 7,8 C 4,4 C 73 % 1021,1 hPa 0,0 l/m 0 min 0 min 0 W/m 6,4 km/h (2 Bft) 100,00 %
23.02.2022 20:30 8,4 C 7,8 C 4,4 C 73 % 1021,1 hPa 0,0 l/m 0 min 0 min 0 W/m 6,4 km/h (2 Bft) 100,00 %
23.02.2022 20:32 8,4 C 7,8 C 4,4 C 73 % 1021,0 hPa 0,0 l/m 0 min 0 min 0 W/m 6,4 km/h (2 Bft) 100,00 %
23.02.2022 20:34 8,4 C 7,8 C 4,4 C 73 % 1021,1 hPa 0,0 l/m 0 min 0 min 0 W/m 12,9 km/h (3 Bft) 97,87 %
23.02.2022 20:36 8,4 C 7,8 C 4,4 C 73 % 1021,1 hPa 0,0 l/m 0 min 0 min 0 W/m 9,7 km/h (2 Bft) 100,00 %
23.02.2022 20:38 8,4 C 7,8 C 4,4 C 73 % 1021,1 hPa 0,0 l/m 0 min 0 min 0 W/m 6,4 km/h (2 Bft) 100,00 %
23.02.2022 20:40 8,4 C 7,8 C 4,4 C 73 % 1021,1 hPa 0,0 l/m 0 min 0 min 0 W/m 12,9 km/h (3 Bft) 100,00 %
23.02.2022 20:42 8,5 C 7,8 C 4,4 C 73 % 1021,0 hPa 0,0 l/m 0 min 0 min 0 W/m 16,1 km/h (3 Bft) 100,00 %
23.02.2022 20:44 8,5 C 7,8 C 4,4 C 73 % 1021,0 hPa 0,0 l/m 0 min 0 min 0 W/m 6,4 km/h (2 Bft) 100,00 %
23.02.2022 20:46 8,5 C 7,8 C 4,4 C 73 % 1021,0 hPa 0,0 l/m 0 min 0 min 0 W/m 9,7 km/h (2 Bft) 100,00 %
23.02.2022 20:48 8,6 C 7,8 C 4,4 C 73 % 1021,0 hPa 0,0 l/m 0 min 0 min 0 W/m 6,4 km/h (2 Bft) 100,00 %
23.02.2022 20:50 8,6 C 7,8 C 4,4 C 73 % 1020,9 hPa 0,0 l/m 0 min 0 min 0 W/m 12,9 km/h (3 Bft) 100,00 %
23.02.2022 20:52 8,6 C 7,8 C 4,4 C 73 % 1020,9 hPa 0,0 l/m 0 min 0 min 0 W/m 6,4 km/h (2 Bft) 100,00 %
23.02.2022 20:54 8,6 C 7,8 C 4,4 C 73 % 1020,9 hPa 0,0 l/m 0 min 0 min 0 W/m 12,9 km/h (3 Bft) 100,00 %
23.02.2022 20:56 8,6 C 7,8 C 4,4 C 73 % 1020,8 hPa 0,0 l/m 0 min 0 min 0 W/m 12,9 km/h (3 Bft) 100,00 %
23.02.2022 20:58 8,7 C 8,3 C 4,4 C 73 % 1020,8 hPa 0,0 l/m 0 min 0 min 0 W/m 16,1 km/h (3 Bft) 100,00 %
23.02.2022 21:00 8,7 C 8,3 C 4,4 C 73 % 1020,8 hPa 0,0 l/m 0 min 0 min 0 W/m 12,9 km/h (3 Bft) 100,00 %
23.02.2022 21:02 8,7 C 8,3 C 4,4 C 73 % 1020,7 hPa 0,0 l/m 0 min 0 min 0 W/m 9,7 km/h (2 Bft) 100,00 %
23.02.2022 21:04 8,7 C 8,3 C 4,4 C 73 % 1020,7 hPa 0,0 l/m 0 min 0 min 0 W/m 9,7 km/h (2 Bft) 100,00 %
23.02.2022 21:06 8,8 C 8,3 C 4,4 C 73 % 1020,6 hPa 0,0 l/m 0 min 0 min 0 W/m 12,9 km/h (3 Bft) 97,87 %
23.02.2022 21:08 8,8 C 8,3 C 4,4 C 73 % 1020,6 hPa 0,0 l/m 0 min 0 min 0 W/m 12,9 km/h (3 Bft) 100,00 %
23.02.2022 21:10 8,8 C 8,3 C 4,4 C 73 % 1020,5 hPa 0,0 l/m 0 min 0 min 0 W/m 12,9 km/h (3 Bft) 100,00 %
23.02.2022 21:12 8,8 C 8,3 C 4,4 C 73 % 1020,5 hPa 0,0 l/m 0 min 0 min 0 W/m 16,1 km/h (3 Bft) 100,00 %
23.02.2022 21:14 8,8 C 8,3 C 4,4 C 73 % 1020,5 hPa 0,0 l/m 0 min 0 min 0 W/m 6,4 km/h (2 Bft) 97,87 %
23.02.2022 21:16 8,8 C 8,3 C 4,4 C 73 % 1020,5 hPa 0,0 l/m 0 min 0 min 0 W/m 6,4 km/h (2 Bft) 98,15 %
23.02.2022 21:18 8,8 C 8,3 C 4,4 C 73 % 1020,5 hPa 0,0 l/m 0 min 0 min 0 W/m 9,7 km/h (2 Bft) 100,00 %
23.02.2022 21:20 8,8 C 8,3 C 4,4 C 73 % 1020,4 hPa 0,0 l/m 0 min 0 min 0 W/m 9,7 km/h (2 Bft) 100,00 %
23.02.2022 21:22 8,8 C 8,3 C 4,4 C 73 % 1020,4 hPa 0,0 l/m 0 min 0 min 0 W/m 12,9 km/h (3 Bft) 100,00 %
23.02.2022 21:24 8,8 C 8,3 C 4,4 C 73 % 1020,4 hPa 0,0 l/m 0 min 0 min 0 W/m 6,4 km/h (2 Bft) 98,11 %
23.02.2022 21:26 8,8 C 8,3 C 4,4 C 73 % 1020,3 hPa 0,0 l/m 0 min 0 min 0 W/m 19,3 km/h (3 Bft) 100,00 %
23.02.2022 21:28 8,8 C 8,3 C 4,4 C 73 % 1020,3 hPa 0,0 l/m 0 min 0 min 0 W/m 9,7 km/h (2 Bft) 97,96 %
23.02.2022 21:30 8,8 C 8,3 C 4,4 C 73 % 1020,3 hPa 0,0 l/m 0 min 0 min 0 W/m 12,9 km/h (3 Bft) 97,87 %
23.02.2022 21:32 8,8 C 8,3 C 4,4 C 73 % 1020,3 hPa 0,0 l/m 0 min 0 min 0 W/m 6,4 km/h (2 Bft) 98,15 %
23.02.2022 21:34 8,8 C 8,3 C 4,4 C 73 % 1020,1 hPa 0,0 l/m 0 min 0 min 0 W/m 6,4 km/h (2 Bft) 100,00 %
23.02.2022 21:36 8,9 C 8,3 C 4,4 C 73 % 1020,3 hPa 0,0 l/m 0 min 0 min 0 W/m 6,4 km/h (2 Bft) 97,37 %
23.02.2022 21:38 8,8 C 8,3 C 4,4 C 73 % 1020,2 hPa 0,0 l/m 0 min 0 min 0 W/m 12,9 km/h (3 Bft) 100,00 %
23.02.2022 21:40 8,8 C 8,3 C 4,4 C 73 % 1020,2 hPa 0,0 l/m 0 min 0 min 0 W/m 6,4 km/h (2 Bft) 95,92 %
23.02.2022 21:42 8,8 C 8,3 C 4,4 C 73 % 1020,2 hPa 0,0 l/m 0 min 0 min 0 W/m 9,7 km/h (2 Bft) 97,87 %
23.02.2022 21:44 8,8 C 8,3 C 4,4 C 73 % 1020,2 hPa 0,0 l/m 0 min 0 min 0 W/m 9,7 km/h (2 Bft) 96,30 %
23.02.2022 21:46 8,8 C 8,3 C 4,4 C 73 % 1020,1 hPa 0,0 l/m 0 min 0 min 0 W/m 9,7 km/h (2 Bft) 97,37 %
23.02.2022 21:48 8,8 C 8,3 C 4,4 C 73 % 1020,1 hPa 0,0 l/m 0 min 0 min 0 W/m 6,4 km/h (2 Bft) 93,75 %
23.02.2022 21:50 8,8 C 8,3 C 4,4 C 73 % 1020,1 hPa 0,0 l/m 0 min 0 min 0 W/m 12,9 km/h (3 Bft) 95,74 %
23.02.2022 21:52 8,8 C 7,8 C 4,4 C 73 % 1020,1 hPa 0,0 l/m 0 min 0 min 0 W/m 12,9 km/h (3 Bft) 96,30 %
23.02.2022 21:54 8,8 C 7,8 C 4,4 C 73 % 1020,0 hPa 0,0 l/m 0 min 0 min 0 W/m 12,9 km/h (3 Bft) 95,74 %
23.02.2022 21:56 8,8 C 8,3 C 4,4 C 73 % 1020,0 hPa 0,0 l/m 0 min 0 min 0 W/m 12,9 km/h (3 Bft) 91,49 %
23.02.2022 21:58 8,8 C 8,3 C 4,4 C 73 % 1020,1 hPa 0,0 l/m 0 min 0 min 0 W/m 16,1 km/h (3 Bft) 97,37 %
23.02.2022 22:00 8,8 C 8,3 C 4,4 C 73 % 1020,1 hPa 0,0 l/m 0 min 0 min 0 W/m 16,1 km/h (3 Bft) 95,65 %
23.02.2022 22:02 8,8 C 8,3 C 4,4 C 73 % 1020,1 hPa 0,0 l/m 0 min 0 min 0 W/m 6,4 km/h (2 Bft) 92,00 %
23.02.2022 22:04 8,8 C 8,3 C 4,4 C 73 % 1020,0 hPa 0,0 l/m 0 min 0 min 0 W/m 6,4 km/h (2 Bft) 94,00 %
23.02.2022 22:06 8,8 C 8,3 C 4,4 C 73 % 1020,1 hPa 0,0 l/m 0 min 0 min 0 W/m 12,9 km/h (3 Bft) 91,49 %
23.02.2022 22:08 8,8 C 8,3 C 4,4 C 73 % 1020,1 hPa 0,0 l/m 0 min 0 min 0 W/m 12,9 km/h (3 Bft) 95,74 %
23.02.2022 22:10 8,8 C 8,3 C 4,4 C 73 % 1020,0 hPa 0,0 l/m 0 min 0 min 0 W/m 12,9 km/h (3 Bft) 95,92 %
23.02.2022 22:12 8,8 C 7,8 C 4,4 C 73 % 1020,0 hPa 0,0 l/m 0 min 0 min 0 W/m 16,1 km/h (3 Bft) 91,89 %
23.02.2022 22:14 8,8 C 7,8 C 4,4 C 73 % 1020,1 hPa 0,0 l/m 0 min 0 min 0 W/m 16,1 km/h (3 Bft) 95,74 %
23.02.2022 22:16 8,8 C 7,8 C 4,4 C 73 % 1020,1 hPa 0,0 l/m 0 min 0 min 0 W/m 12,9 km/h (3 Bft) 94,44 %
23.02.2022 22:18 8,8 C 7,8 C 4,4 C 73 % 1020,1 hPa 0,0 l/m 0 min 0 min 0 W/m 12,9 km/h (3 Bft) 96,00 %
23.02.2022 22:20 8,8 C 7,8 C 4,4 C 74 % 1020,1 hPa 0,0 l/m 0 min 0 min 0 W/m 9,7 km/h (2 Bft) 94,59 %
23.02.2022 22:22 8,8 C 7,8 C 4,4 C 74 % 1020,1 hPa 0,0 l/m 0 min 0 min 0 W/m 6,4 km/h (2 Bft) 95,74 %
23.02.2022 22:24 8,8 C 7,8 C 4,4 C 74 % 1020,1 hPa 0,0 l/m 0 min 0 min 0 W/m 12,9 km/h (3 Bft) 95,65 %
23.02.2022 22:26 8,8 C 7,8 C 4,4 C 74 % 1020,0 hPa 0,0 l/m 0 min 0 min 0 W/m 12,9 km/h (3 Bft) 94,44 %
23.02.2022 22:28 8,8 C 7,8 C 4,4 C 74 % 1020,0 hPa 0,0 l/m 0 min 0 min 0 W/m 9,7 km/h (2 Bft) 98,00 %
23.02.2022 22:30 8,8 C 7,8 C 4,4 C 74 % 1020,0 hPa 0,0 l/m 0 min 0 min 0 W/m 6,4 km/h (2 Bft) 94,59 %
23.02.2022 22:32 8,8 C 7,8 C 4,4 C 74 % 1020,0 hPa 0,0 l/m 0 min 0 min 0 W/m 9,7 km/h (2 Bft) 97,87 %
23.02.2022 22:34 8,7 C 7,8 C 4,4 C 74 % 1020,0 hPa 0,0 l/m 0 min 0 min 0 W/m 12,9 km/h (3 Bft) 97,87 %
23.02.2022 22:36 8,7 C 7,8 C 4,4 C 74 % 1019,9 hPa 0,0 l/m 0 min 0 min 0 W/m 19,3 km/h (3 Bft) 97,83 %
23.02.2022 22:38 8,7 C 7,8 C 4,4 C 74 % 1020,0 hPa 0,0 l/m 0 min 0 min 0 W/m 12,9 km/h (3 Bft) 97,87 %
23.02.2022 22:40 8,7 C 7,8 C 4,4 C 74 % 1019,9 hPa 0,0 l/m 0 min 0 min 0 W/m 6,4 km/h (2 Bft) 97,87 %
23.02.2022 22:42 8,7 C 7,8 C 4,4 C 75 % 1019,9 hPa 0,0 l/m 0 min 0 min 0 W/m 16,1 km/h (3 Bft) 98,15 %
23.02.2022 22:44 8,7 C 7,8 C 4,4 C 75 % 1019,8 hPa 0,0 l/m 0 min 0 min 0 W/m 12,9 km/h (3 Bft) 95,74 %
23.02.2022 22:46 8,7 C 7,8 C 4,4 C 75 % 1019,9 hPa 0,0 l/m 0 min 0 min 0 W/m 9,7 km/h (2 Bft) 95,92 %
23.02.2022 22:48 8,7 C 7,8 C 4,4 C 75 % 1019,8 hPa 0,0 l/m 0 min 0 min 0 W/m 9,7 km/h (2 Bft) 97,30 %
23.02.2022 22:50 8,7 C 7,8 C 4,4 C 75 % 1019,8 hPa 0,0 l/m 0 min 0 min 0 W/m 9,7 km/h (2 Bft) 97,87 %
23.02.2022 22:52 8,6 C 7,8 C 4,4 C 75 % 1019,8 hPa 0,0 l/m 0 min 0 min 0 W/m 12,9 km/h (3 Bft) 94,44 %
23.02.2022 22:54 8,6 C 7,8 C 4,4 C 75 % 1019,8 hPa 0,0 l/m 0 min 0 min 0 W/m 19,3 km/h (3 Bft) 98,00 %
23.02.2022 22:56 8,6 C 7,8 C 4,4 C 75 % 1019,7 hPa 0,0 l/m 0 min 0 min 0 W/m 16,1 km/h (3 Bft) 97,83 %
23.02.2022 22:58 8,6 C 7,8 C 4,4 C 75 % 1019,7 hPa 0,0 l/m 0 min 0 min 0 W/m 6,4 km/h (2 Bft) 97,37 %
23.02.2022 23:00 8,6 C 7,8 C 4,4 C 75 % 1019,7 hPa 0,0 l/m 0 min 0 min 0 W/m 16,1 km/h (3 Bft) 97,96 %
23.02.2022 23:02 8,6 C 7,8 C 4,4 C 75 % 1019,7 hPa 0,0 l/m 0 min 0 min 0 W/m 12,9 km/h (3 Bft) 98,00 %
23.02.2022 23:04 8,6 C 7,8 C 4,4 C 75 % 1019,7 hPa 0,0 l/m 0 min 0 min 0 W/m 6,4 km/h (2 Bft) 100,00 %
23.02.2022 23:06 8,6 C 7,8 C 4,4 C 75 % 1019,7 hPa 0,0 l/m 0 min 0 min 0 W/m 6,4 km/h (2 Bft) 97,87 %
23.02.2022 23:08 8,6 C 7,8 C 4,4 C 75 % 1019,7 hPa 0,0 l/m 0 min 0 min 0 W/m 9,7 km/h (2 Bft) 100,00 %
23.02.2022 23:10 8,6 C 7,8 C 4,4 C 75 % 1019,7 hPa 0,0 l/m 0 min 0 min 0 W/m 9,7 km/h (2 Bft) 100,00 %
23.02.2022 23:12 8,6 C 7,8 C 4,4 C 75 % 1019,6 hPa 0,0 l/m 0 min 0 min 0 W/m 12,9 km/h (3 Bft) 97,87 %
23.02.2022 23:14 8,6 C 7,8 C 4,4 C 75 % 1019,6 hPa 0,0 l/m 0 min 0 min 0 W/m 6,4 km/h (2 Bft) 100,00 %
23.02.2022 23:16 8,5 C 7,8 C 4,4 C 76 % 1019,6 hPa 0,0 l/m 0 min 0 min 0 W/m 6,4 km/h (2 Bft) 100,00 %
23.02.2022 23:18 8,5 C 7,8 C 3,9 C 76 % 1019,6 hPa 0,0 l/m 0 min 0 min 0 W/m 6,4 km/h (2 Bft) 100,00 %
23.02.2022 23:20 8,5 C 7,8 C 3,9 C 76 % 1019,5 hPa 0,0 l/m 0 min 0 min 0 W/m 6,4 km/h (2 Bft) 100,00 %
23.02.2022 23:22 8,4 C 7,8 C 3,9 C 76 % 1019,6 hPa 0,0 l/m 0 min 0 min 0 W/m 6,4 km/h (2 Bft) 100,00 %
23.02.2022 23:24 8,4 C 7,8 C 3,9 C 76 % 1019,5 hPa 0,0 l/m 0 min 0 min 0 W/m 6,4 km/h (2 Bft) 97,87 %
23.02.2022 23:26 8,4 C 7,8 C 3,9 C 76 % 1019,5 hPa 0,0 l/m 0 min 0 min 0 W/m 12,9 km/h (3 Bft) 97,62 %
23.02.2022 23:28 8,4 C 7,8 C 3,9 C 76 % 1019,4 hPa 0,0 l/m 0 min 0 min 0 W/m 19,3 km/h (3 Bft) 100,00 %
23.02.2022 23:30 8,4 C 7,8 C 4,4 C 76 % 1019,4 hPa 0,0 l/m 0 min 0 min 0 W/m 16,1 km/h (3 Bft) 100,00 %
23.02.2022 23:32 8,4 C 7,8 C 4,4 C 77 % 1019,4 hPa 0,0 l/m 0 min 0 min 0 W/m 19,3 km/h (3 Bft) 100,00 %
23.02.2022 23:34 8,4 C 7,8 C 4,4 C 77 % 1019,4 hPa 0,0 l/m 0 min 0 min 0 W/m 16,1 km/h (3 Bft) 94,29 %
23.02.2022 23:36 8,4 C 7,8 C 4,4 C 77 % 1019,3 hPa 0,0 l/m 0 min 0 min 0 W/m 16,1 km/h (3 Bft) 94,92 %
23.02.2022 23:38 8,4 C 7,8 C 4,4 C 77 % 1019,3 hPa 0,0 l/m 0 min 0 min 0 W/m 12,9 km/h (3 Bft) 97,87 %
23.02.2022 23:40 8,4 C 7,8 C 4,4 C 77 % 1019,2 hPa 0,0 l/m 0 min 0 min 0 W/m 6,4 km/h (2 Bft) 100,00 %
23.02.2022 23:42 8,4 C 7,8 C 3,9 C 77 % 1019,3 hPa 0,0 l/m 0 min 0 min 0 W/m 12,9 km/h (3 Bft) 97,87 %
23.02.2022 23:44 8,4 C 7,8 C 3,9 C 77 % 1019,2 hPa 0,0 l/m 0 min 0 min 0 W/m 12,9 km/h (3 Bft) 97,87 %
23.02.2022 23:46 8,4 C 7,8 C 3,9 C 77 % 1019,2 hPa 0,0 l/m 0 min 0 min 0 W/m 6,4 km/h (2 Bft) 97,83 %
23.02.2022 23:48 8,4 C 7,2 C 3,9 C 77 % 1019,2 hPa 0,0 l/m 0 min 0 min 0 W/m 6,4 km/h (2 Bft) 95,74 %
23.02.2022 23:50 8,4 C 7,8 C 3,9 C 77 % 1019,2 hPa 0,0 l/m 0 min 0 min 0 W/m 19,3 km/h (3 Bft) 97,87 %
23.02.2022 23:52 8,3 C 7,8 C 3,9 C 77 % 1019,1 hPa 0,0 l/m 0 min 0 min 0 W/m 19,3 km/h (3 Bft) 97,87 %
23.02.2022 23:54 8,3 C 7,8 C 3,9 C 78 % 1019,1 hPa 0,0 l/m 0 min 0 min 0 W/m 16,1 km/h (3 Bft) 97,87 %
23.02.2022 23:56 8,3 C 7,2 C 3,9 C 78 % 1019,1 hPa 0,0 l/m 0 min 0 min 0 W/m 9,7 km/h (2 Bft) 97,87 %
23.02.2022 23:58 8,3 C 7,2 C 3,9 C 78 % 1019,0 hPa 0,0 l/m 0 min 0 min 0 W/m 6,4 km/h (2 Bft) 83,67 %
_ Min-Zeit 07:36 06:48 06:04 13:58 23:58 - - - - 00:00 18:00
Minimum _ 2,8 C 1,7 C 0,0 C 60 % 1019,0 hPa - - - - 0,0 km/h (0 Bft) 46,15 %
_ Max-Zeit 13:42 13:38 11:28 07:40 10:00 04:28 08:50 00:00 13:12 14:20 00:14
Maximum _ 12,4 C 22,2 C 14,4 C 95 % 1027,2 hPa 0,2 l/m 2 min 0 min 550 W/m 38,6 km/h
SO (5 Bft)
100,00 %
Durchschnitt _ 7,6 C 8,4 C 4,3 C 81 % 1023,8 hPa #0,2 l/m #6:12 h #0 min. 254 W/m 12,1 km/h (2 Bft) 97,35 %
© 2022 W. Hausmann